GFSMW_sfc_temp_066.txt.gz
Temp
76 75 74 77 78 77 77 76 75 75 74 74 74 74 73 75 75 71 73 72 72 71 71 73 70 72 71 70 68 68 66 67 69 68 69 67 65 64 66 67 67 66 66
73 74 75 76 75 75 75 76 77 77 76 78 76 76 75 77 76 71 72 71 70 71 71 71 70 70 70 67 66 66 66 67 67 64 62 61 63 64 64 66 65 64 66
74 74 74 75 75 75 75 77 78 78 76 77 77 77 77 76 73 68 68 70 68 72 70 68 71 69 69 67 66 67 65 64 63 62 59 50 55 61 67 62 63 62 63
77 77 75 75 75 75 77 78 78 78 76 76 76 73 74 73 74 70 71 67 69 68 68 69 69 68 70 68 67 67 66 64 59 61 56 56 57 56 56 63 62 62 61
77 78 78 77 78 77 76 76 78 77 77 76 76 74 73 76 75 71 70 68 66 66 67 69 68 68 68 67 66 64 62 57 61 57 54 55 60 59 55 52 58 62 63
79 80 81 81 80 78 76 76 76 77 76 74 73 73 73 72 68 68 66 61 63 64 66 69 68 68 67 65 64 62 59 55 57 56 56 58 57 57 56 54 55 55 59
79 80 81 80 80 79 76 76 76 76 76 73 73 72 72 71 68 67 66 64 61 63 65 66 66 66 66 64 61 59 52 53 53 53 59 60 58 58 57 54 53 53 57
80 80 81 82 80 79 76 75 75 74 74 70 71 71 68 67 66 67 66 61 59 64 67 66 66 65 64 61 52 58 58 50 50 56 57 59 59 59 57 55 52 49 52
78 80 81 81 80 79 76 75 76 76 76 70 71 67 67 63 64 66 64 58 60 65 65 64 64 62 58 50 51 50 50 49 53 57 57 57 58 57 57 56 55 49 43
74 77 79 80 79 79 79 76 77 77 78 75 69 69 67 68 66 64 62 58 61 66 63 62 59 48 48 49 51 48 48 50 54 57 56 56 57 57 56 56 55 54 50
76 76 77 78 78 79 78 76 75 77 77 76 72 67 66 65 64 62 60 58 59 62 61 57 49 48 46 47 47 46 48 51 56 56 55 54 55 55 55 55 54 53 52
76 77 77 76 76 76 76 76 75 76 76 75 72 64 63 61 57 55 54 56 53 52 48 48 46 46 46 45 44 46 54 55 55 55 55 53 55 53 54 53 52 52 53
78 77 75 74 75 75 75 75 74 73 72 67 62 56 54 53 52 51 50 49 48 46 47 48 46 44 44 45 49 53 56 56 55 55 54 54 53 52 53 52 52 52 52
76 78 77 75 74 73 71 68 63 62 60 58 55 52 52 51 50 49 49 47 48 47 46 46 46 45 47 50 55 56 55 55 55 54 54 54 53 52 51 51 51 51 50
74 75 75 73 73 70 69 68 62 58 57 55 53 52 52 51 49 48 47 48 46 47 47 46 45 48 51 53 52 55 55 55 54 54 54 53 51 46 46 50 49 49 48
68 70 71 69 66 65 65 63 61 57 57 54 51 51 50 51 51 47 46 48 48 47 46 44 45 47 50 46 42 44 53 54 53 52 53 54 48 45 39 39 38 41 45
63 64 65 65 64 63 63 61 60 59 57 54 53 53 53 50 48 48 46 46 45 46 45 48 48 50 55 43 41 39 50 52 52 53 53 53 54 48 50 43 37 37 37
60 60 61 61 62 62 62 61 62 60 58 56 55 54 51 49 48 46 45 46 49 49 53 54 53 53 54 41 39 38 49 51 52 52 52 51 51 51 48 48 47 47 46
59 60 61 61 61 61 61 60 58 55 53 51 50 49 48 46 46 47 47 48 53 54 53 53 52 52 52 41 39 40 48 49 49 51 51 51 50 46 42 45 42 43 44
59 58 59 60 59 60 60 57 55 53 51 51 50 51 52 50 48 52 53 53 54 53 53 51 51 46 48 42 39 40 44 43 44 47 48 43 44 41 38 41 41 36 41
57 58 59 58 58 59 58 56 55 54 54 53 52 52 52 52 52 52 52 53 52 49 47 45 46 47 45 45 38 37 40 40 39 40 42 45 39 37 37 36 38 35 41
55 56 56 56 57 58 57 55 53 55 53 51 49 50 50 50 50 50 50 50 48 46 44 40 42 44 44 39 38 36 35 35 35 37 40 41 38 37 36 36 35 34 34
55 56 54 53 55 56 56 52 51 52 51 50 48 48 47 48 48 47 46 47 46 43 41 40 39 40 41 42 36 34 33 34 34 36 36 34 35 34 34 34 34 33 33
53 53 52 50 48 51 51 50 50 50 50 47 45 46 43 45 44 47 45 44 41 39 38 37 37 37 37 38 35 34 35 34 34 34 35 36 34 34 34 34 35 34 33
52 53 50 47 45 46 46 47 47 47 44 43 43 42 41 41 43 42 41 39 39 35 34 35 34 31 30 31 29 30 30 30 30 30 32 34 37 37 38 38 37 35 34
50 47 46 44 43 42 41 43 44 45 43 41 40 37 39 39 41 41 40 31 32 30 30 29 29 30 28 27 27 28 28 28 28 30 30 30 32 34 36 36 36 34 33

GFSMW_sfc_temp_069.txt.gz
Temp
75 76 76 77 75 74 75 76 75 74 74 75 75 76 75 78 79 78 75 73 74 73 73 75 73 72 73 72 70 70 68 68 69 68 69 69 68 67 68 69 68 68 68
73 74 75 75 76 75 77 79 79 78 78 79 79 79 78 79 80 76 72 73 74 74 73 74 73 72 73 70 69 68 68 69 69 65 65 62 65 66 66 67 67 66 67
77 76 75 76 77 77 77 79 80 81 80 81 81 79 79 79 78 75 70 72 73 74 74 74 73 72 72 70 68 68 68 66 66 65 63 58 56 61 68 66 66 65 64
79 79 78 77 77 78 80 80 81 82 82 79 79 76 76 75 77 76 73 71 73 72 72 73 72 71 71 69 68 70 68 67 64 64 64 62 60 56 55 66 64 64 63
81 80 80 80 81 80 79 79 81 81 82 78 79 77 75 78 79 76 71 70 71 70 69 70 71 70 69 69 69 68 66 65 62 59 59 58 60 60 56 53 59 64 65
83 83 84 83 82 80 79 79 80 81 81 80 77 77 75 76 77 73 70 69 69 68 64 66 68 68 66 68 68 67 65 60 60 59 56 58 58 58 58 55 56 57 60
83 83 84 84 83 81 79 79 79 79 80 79 78 76 76 76 75 72 71 67 66 64 63 64 64 65 65 68 67 64 60 55 56 56 54 58 60 60 59 56 54 54 58
84 84 85 85 84 83 81 79 79 78 80 78 77 77 77 77 74 72 71 67 66 66 66 62 60 61 62 66 64 59 54 53 54 54 53 56 60 61 59 56 53 49 52
83 85 86 86 85 84 83 80 79 80 81 79 77 76 76 75 72 70 69 68 66 64 62 61 59 58 60 60 55 49 46 47 49 48 50 56 59 59 59 58 56 51 44
81 84 86 86 87 87 85 82 81 81 81 80 76 76 75 72 70 66 66 66 65 62 59 57 55 55 51 50 48 47 47 47 47 49 51 57 58 59 58 58 57 55 51
81 82 84 86 87 86 85 82 81 81 82 81 78 74 74 70 69 65 65 63 61 57 54 52 51 50 47 46 45 45 46 45 46 51 55 55 57 56 57 57 56 54 53
83 83 82 83 83 83 83 82 81 80 81 81 78 72 69 66 63 61 58 55 50 51 49 48 46 46 45 45 44 43 46 46 48 52 55 55 58 55 55 55 53 53 54
83 83 82 81 81 81 81 81 79 79 81 80 73 62 57 55 53 51 50 50 49 49 48 47 46 45 44 44 45 46 49 52 53 55 55 56 56 54 54 54 53 54 54
82 84 82 81 81 80 79 79 74 72 69 64 61 54 52 51 50 49 49 49 50 48 47 48 47 47 46 47 48 50 51 53 55 54 56 56 54 53 53 53 52 53 51
81 82 82 80 79 77 74 66 61 59 58 55 53 51 51 50 50 48 48 48 48 48 48 47 46 46 47 49 52 54 53 54 54 56 57 56 54 49 48 52 50 50 49
76 78 80 79 76 72 70 62 59 57 56 54 52 52 50 50 49 49 48 49 48 48 47 45 46 46 49 46 43 46 53 54 53 53 55 56 51 50 43 42 41 45 46
70 72 74 73 71 69 65 59 57 56 53 52 52 52 52 50 49 49 48 47 45 45 47 50 50 52 53 44 43 40 51 51 52 52 53 54 57 50 55 46 40 39 38
68 69 70 69 69 68 65 61 59 57 56 55 54 53 51 50 50 49 47 45 49 51 53 53 56 56 56 43 41 39 49 50 51 52 52 52 52 53 50 50 49 48 46
68 68 68 68 67 67 67 65 63 61 59 56 54 54 54 50 49 46 47 50 50 54 56 56 54 53 54 39 38 41 47 47 47 49 50 50 49 45 41 43 43 45 46
67 66 67 67 66 65 65 62 60 59 55 54 54 54 52 53 53 52 54 56 56 55 56 53 53 44 50 37 38 40 43 40 41 44 45 41 41 38 38 40 40 38 41
66 66 66 64 64 64 63 59 58 56 56 56 55 54 54 57 56 55 55 54 54 52 49 47 48 48 46 45 37 36 39 37 35 36 38 41 37 37 37 36 38 36 38
63 65 63 63 63 64 62 60 58 58 58 57 55 55 55 54 54 53 52 52 51 48 46 43 44 46 45 39 35 35 34 34 34 34 37 37 35 34 33 34 35 35 35
63 64 62 60 61 62 62 58 57 56 55 54 53 52 52 52 52 50 49 50 49 46 44 42 41 42 43 43 35 34 33 33 33 34 34 33 33 33 34 36 34 33 36
61 62 60 58 57 59 58 57 56 55 54 51 50 50 49 48 49 51 49 48 45 43 40 40 39 39 38 39 36 33 33 33 32 32 33 31 31 34 33 33 37 38 37
59 59 57 55 54 54 53 54 54 54 50 49 48 47 46 47 45 46 43 42 38 35 36 37 36 32 31 32 28 28 29 29 29 29 31 34 33 33 34 36 37 40 39
58 55 53 52 51 51 50 51 52 51 48 46 45 42 42 42 45 45 40 32 32 31 30 29 29 31 28 27 26 27 28 28 29 29 30 29 28 28 29 30 32 33 35

GFSMW_sfc_temp_072.txt.gz
Temp
72 72 71 68 66 63 63 63 64 64 64 64 64 67 66 69 68 70 71 69 69 69 65 67 66 64 63 62 62 61 59 58 59 56 56 56 57 56 57 57 57 59 59
72 72 71 69 67 66 65 65 66 68 68 68 70 71 70 71 72 72 69 69 68 69 67 66 65 64 63 62 60 60 57 57 58 54 54 50 53 56 57 56 57 55 58
70 70 70 68 68 67 68 71 71 71 71 72 74 72 71 69 70 68 67 67 69 69 67 66 65 64 64 61 59 59 58 55 55 56 52 47 46 49 54 53 54 54 53
71 71 71 70 69 69 71 73 75 75 74 74 74 70 70 68 69 68 69 67 68 69 70 67 65 64 63 62 60 63 58 57 53 53 57 55 53 48 44 51 52 53 54
72 71 73 72 72 73 72 73 75 76 75 75 72 71 68 69 70 71 67 66 66 67 69 65 64 63 63 62 61 60 60 57 53 52 51 52 49 52 45 43 49 53 53
73 77 76 75 75 73 74 74 75 76 74 74 72 70 68 68 69 66 65 66 65 64 64 64 61 61 62 60 59 60 59 54 52 51 51 51 49 50 46 43 44 45 49
76 76 76 75 76 74 73 74 74 74 75 73 71 71 70 69 68 67 66 64 62 61 62 61 60 61 60 59 58 57 55 51 50 49 50 52 51 53 50 48 46 44 47
79 78 80 78 77 76 74 74 74 74 75 74 72 72 72 71 70 69 67 66 63 61 60 60 60 60 59 57 56 51 51 50 49 48 49 48 49 51 50 48 44 40 41
79 81 81 79 79 77 75 73 74 75 75 74 73 72 72 71 69 67 65 63 64 63 61 60 59 56 54 52 50 48 46 46 46 45 46 47 49 51 51 49 47 41 32
79 80 82 80 81 80 79 75 75 76 76 76 73 73 72 71 70 66 62 62 62 61 58 56 55 50 49 48 47 46 46 45 45 46 46 46 49 51 49 49 47 45 41
78 79 80 81 82 81 76 77 76 77 77 77 74 71 70 65 63 62 62 60 59 57 55 51 49 47 46 46 45 44 44 44 44 45 45 47 50 48 48 47 46 44 42
80 80 79 80 80 80 80 76 76 76 77 76 73 70 67 63 60 59 56 55 54 52 50 49 47 47 47 46 44 43 44 44 43 45 46 48 53 49 47 46 44 43 43
80 80 79 78 78 78 76 78 76 76 76 71 64 61 58 55 52 51 51 51 50 48 48 48 47 45 44 44 45 45 45 45 46 48 47 49 49 46 45 44 43 43 48
80 80 78 78 77 77 76 76 69 67 64 61 58 54 52 51 50 49 49 49 49 47 46 47 46 46 46 46 46 47 46 47 49 49 50 49 48 46 44 45 43 45 40
79 79 79 77 76 74 65 64 62 61 59 56 52 50 50 49 49 49 49 48 47 48 47 46 46 46 46 47 47 48 48 47 48 48 50 49 48 47 45 48 42 41 39
76 78 79 76 73 65 61 58 56 55 55 51 49 49 48 48 47 47 47 47 47 46 46 45 45 44 48 44 43 44 45 47 46 44 46 47 47 47 43 42 42 44 43
73 73 75 72 68 61 60 56 53 53 51 50 50 50 49 48 47 48 47 46 45 45 45 45 46 47 47 44 42 40 44 43 43 42 43 46 51 44 46 43 40 38 39
71 72 71 68 64 61 58 56 54 52 52 51 51 50 49 48 47 47 45 45 45 46 47 48 48 48 45 39 39 38 42 41 42 42 42 41 41 41 39 38 36 37 39
69 69 69 68 63 60 59 57 55 54 54 51 51 51 49 48 47 45 46 47 47 49 49 50 49 45 39 38 38 41 38 39 37 41 40 39 37 38 38 34 32 33 35
69 67 67 66 64 63 61 59 57 55 53 53 52 52 51 49 47 48 49 49 49 51 50 48 46 43 36 37 36 38 33 31 31 33 36 36 35 35 35 31 30 28 31
67 67 65 63 62 63 62 59 56 54 55 54 52 51 52 52 52 51 50 49 47 45 40 39 39 42 39 35 35 35 30 28 29 29 30 31 35 35 34 33 30 29 31
65 65 62 62 61 62 60 57 55 56 55 54 53 52 53 53 52 48 47 47 44 40 37 35 35 35 36 34 35 34 33 32 28 28 29 30 33 33 33 32 33 33 32
63 64 62 59 60 60 60 56 55 56 54 53 51 50 51 51 50 46 44 43 42 37 33 33 32 32 33 30 33 33 32 32 28 29 30 31 31 31 31 34 34 33 31
62 62 60 58 57 60 60 56 55 54 53 50 48 48 46 46 46 47 45 41 36 32 32 32 31 29 30 28 27 27 26 29 28 27 26 26 28 27 29 29 31 31 31
61 60 58 56 56 55 54 54 54 53 49 47 46 44 42 43 41 38 36 32 30 30 29 29 29 25 24 25 26 26 25 24 26 23 24 25 26 26 26 26 27 28 28
59 57 56 54 51 51 51 51 52 50 46 44 41 37 37 36 40 38 34 33 31 31 30 30 28 27 27 27 27 27 27 28 28 22 21 19 19 21 22 22 23 24 24

GFSMW_sfc_temp_075.txt.gz
Temp
59 59 58 58 56 57 57 57 58 57 58 56 57 59 59 63 65 65 66 65 66 65 62 61 61 60 60 59 59 58 57 55 55 53 52 52 53 54 53 53 54 56 55
58 59 58 57 56 56 58 58 59 59 60 61 62 61 62 65 66 63 64 66 64 64 62 61 60 60 59 59 58 57 54 54 54 51 49 47 49 51 53 52 53 52 54
59 59 58 57 57 57 58 59 61 62 62 64 64 64 61 62 61 60 61 63 65 64 64 61 60 60 60 58 56 56 55 52 51 53 50 44 43 45 50 51 51 51 50
65 62 60 59 58 59 61 61 63 64 65 65 65 64 64 63 65 63 66 63 64 65 65 64 61 60 60 57 58 59 56 54 53 51 53 49 48 45 44 48 49 50 51
65 64 63 62 63 63 63 63 64 65 67 66 67 65 64 65 62 62 64 64 64 64 65 66 62 59 59 58 57 57 56 56 53 51 50 49 47 46 44 43 46 48 49
66 67 67 66 64 65 65 66 67 68 68 67 67 67 61 64 63 59 61 63 63 64 64 63 61 60 59 58 57 56 57 53 52 50 50 49 46 46 47 44 42 43 48
67 66 66 66 65 65 66 67 68 68 69 70 69 66 63 63 65 62 62 61 59 59 60 59 57 57 57 57 57 56 53 49 48 47 47 49 50 49 50 47 44 41 43
69 67 68 67 68 68 68 68 69 69 70 68 69 64 67 67 64 62 63 62 61 61 58 57 56 57 57 57 55 51 49 48 47 47 46 47 47 48 48 49 45 39 38
68 70 70 70 69 69 68 69 70 71 71 65 68 65 64 66 66 62 62 61 59 59 58 57 56 55 54 52 50 49 47 47 46 45 45 45 46 47 47 48 48 40 30
68 70 72 71 72 72 72 70 71 71 71 71 67 68 68 65 64 64 60 59 60 59 57 56 54 52 50 49 48 46 46 46 45 45 45 45 46 46 48 49 46 43 40
68 69 67 74 74 74 72 71 69 71 71 72 68 67 66 66 64 60 59 58 57 56 55 52 52 49 47 47 46 46 46 45 44 45 45 45 47 46 45 44 45 42 39
68 69 70 67 70 68 71 71 70 69 67 69 65 67 64 60 59 59 59 57 55 54 52 51 49 47 47 47 47 45 45 45 44 45 45 45 48 44 44 43 42 40 40
67 67 69 69 66 67 68 70 70 66 64 67 65 59 57 55 55 54 53 53 51 51 50 48 47 47 45 45 45 46 45 45 45 46 45 46 45 43 41 41 40 41 45
71 67 66 67 68 64 61 60 58 58 57 55 54 54 53 52 50 50 51 50 49 48 47 47 46 45 46 46 47 47 46 45 46 46 46 45 44 45 42 41 40 41 37
68 67 66 64 60 58 56 55 53 52 53 52 50 49 50 49 49 48 48 47 47 47 47 46 45 46 46 47 46 47 46 45 45 45 48 47 46 44 43 44 39 38 35
68 65 66 64 61 57 54 52 51 51 51 50 49 49 49 47 47 47 47 47 46 46 45 45 44 44 47 43 43 44 42 43 42 40 41 41 43 42 39 38 38 36 33
65 65 64 61 58 54 53 50 51 51 50 49 49 48 48 47 47 47 46 45 44 44 44 45 45 44 45 41 41 40 41 40 39 37 37 40 43 38 36 36 36 35 37
64 61 58 56 54 52 50 50 50 51 50 49 48 48 47 46 46 46 45 44 45 45 44 43 43 43 41 39 39 38 37 36 36 36 35 34 32 34 35 32 30 31 32
60 58 56 55 52 51 52 51 50 51 50 49 48 48 47 46 45 44 44 43 43 43 43 46 41 37 36 38 38 37 33 34 32 34 33 33 31 35 36 31 28 28 29
59 58 56 54 52 52 52 51 52 51 49 49 49 49 48 47 45 45 43 44 46 47 45 41 38 36 34 37 37 34 29 28 27 29 31 33 32 33 33 29 27 25 28
58 57 57 54 53 54 53 51 51 50 51 51 50 48 47 46 46 45 45 44 41 39 34 34 34 33 33 33 36 34 27 26 27 27 27 27 31 32 32 32 29 28 31
57 56 53 52 53 54 53 50 48 53 52 50 47 47 48 50 47 42 41 41 38 34 32 32 31 29 29 33 34 33 32 31 27 27 27 27 31 31 32 31 32 32 30
55 55 53 52 52 52 52 49 48 50 51 49 47 45 47 46 45 40 38 37 36 32 30 31 30 27 28 27 31 30 30 30 26 27 27 29 29 30 28 31 30 27 26
53 53 52 50 49 51 52 50 50 50 49 46 43 42 40 39 39 39 37 34 30 29 30 30 29 29 25 24 24 25 24 27 26 26 25 24 26 25 25 25 26 24 23
52 52 50 47 47 50 50 50 49 47 44 42 41 39 39 36 33 33 34 30 30 31 29 26 27 23 21 25 26 26 25 21 25 20 19 22 23 23 23 23 23 23 22
51 48 46 45 45 41 40 43 47 44 40 38 37 34 34 33 35 32 29 30 31 32 32 31 26 27 28 28 27 28 28 28 28 20 16 16 11 13 19 18 19 19 18

GFSMW_sfc_temp_078.txt.gz
Temp
54 56 58 59 58 58 58 57 57 58 58 57 58 61 62 57 58 59 61 61 62 62 60 59 58 58 59 58 57 55 55 53 53 52 50 50 50 50 50 51 51 53 53
55 56 55 57 56 57 55 55 56 56 57 58 60 60 58 57 58 60 61 61 62 61 60 60 59 58 57 57 56 56 53 53 52 51 48 46 49 50 51 50 51 50 52
54 56 55 54 56 56 55 55 56 57 58 59 59 57 57 57 57 58 60 61 62 63 62 60 60 58 58 57 55 55 54 53 52 52 52 45 44 45 48 49 49 50 49
57 56 55 53 53 54 55 57 58 58 59 60 60 59 60 60 62 63 63 62 63 63 62 62 60 58 58 56 56 56 55 55 54 53 54 50 48 45 43 47 48 47 50
57 56 56 56 56 57 56 57 59 60 61 61 62 61 59 61 61 59 60 60 61 62 63 62 61 58 57 57 55 56 56 55 53 51 49 48 49 47 46 43 47 51 50
59 59 59 59 58 59 58 58 58 60 62 62 62 61 60 61 60 59 59 60 61 62 62 62 60 60 58 57 56 55 56 54 51 50 48 47 46 45 45 43 45 45 49
61 59 58 58 59 59 59 60 60 60 62 63 63 62 62 61 62 60 62 62 61 61 62 62 61 60 59 57 57 56 55 52 50 48 47 48 48 48 46 44 43 43 46
63 61 60 60 61 61 61 60 61 61 63 63 63 63 64 64 63 64 62 62 62 62 62 62 62 57 56 56 55 52 49 49 49 48 48 47 47 48 47 45 42 40 41
63 63 63 62 62 62 62 62 63 64 65 65 65 64 64 64 64 63 62 62 62 62 61 60 58 56 55 53 51 49 48 49 48 46 47 47 47 47 47 46 46 42 37
64 65 66 65 64 63 63 62 64 65 67 68 67 67 65 64 65 60 60 60 60 59 58 57 56 54 53 51 50 49 48 47 46 46 46 46 46 46 46 46 46 45 42
65 66 67 68 67 67 65 63 63 65 66 67 65 66 66 63 62 59 58 57 57 57 57 56 55 53 52 50 48 48 47 46 45 46 46 46 46 45 46 46 45 43 38
65 66 68 68 68 67 67 67 65 65 68 68 67 64 64 62 61 58 58 58 56 57 57 54 53 51 49 48 47 46 46 46 45 45 45 45 48 45 45 44 41 39 39
63 63 62 63 68 68 67 67 66 66 67 65 62 60 58 59 61 60 58 58 57 54 53 52 50 48 47 46 46 47 46 46 46 46 45 45 45 43 42 40 39 39 43
64 63 62 62 62 65 67 65 64 65 62 58 56 54 54 54 54 55 54 54 53 51 49 49 48 47 46 47 47 47 46 46 46 46 46 46 44 42 40 39 38 40 39
64 64 62 58 57 55 55 55 54 53 54 53 52 50 50 50 51 50 50 49 49 48 48 47 46 46 47 47 46 46 46 45 45 46 46 45 43 40 40 37 32 32 30
63 64 63 59 57 54 52 52 53 52 52 50 49 49 49 49 48 48 48 46 46 46 46 45 45 44 47 42 42 45 44 44 42 40 37 39 40 38 37 37 37 35 30
62 62 62 60 56 53 52 51 51 51 50 50 50 49 49 47 46 47 46 45 45 45 44 45 46 45 45 41 41 40 41 37 35 34 34 37 38 34 33 33 33 33 34
60 58 55 52 50 51 52 51 51 50 49 49 49 48 48 46 46 46 45 44 45 45 44 44 44 43 41 39 39 38 35 33 33 32 32 31 30 32 32 30 28 28 28
57 54 52 50 49 49 50 50 50 50 49 48 47 47 47 45 45 44 44 44 45 45 44 44 38 36 36 37 37 36 32 32 31 32 31 31 30 33 34 29 26 26 28
55 53 51 50 49 49 49 48 49 49 48 47 47 48 47 46 45 45 44 46 46 45 41 37 36 36 34 37 36 34 30 28 28 29 31 32 30 32 32 28 26 25 27
54 52 51 50 49 49 49 47 49 48 49 49 48 47 47 46 46 46 46 44 39 36 35 32 31 32 33 34 35 34 28 27 28 28 28 28 30 31 32 32 27 27 28
52 52 50 49 49 50 49 46 48 51 50 48 47 47 47 47 46 43 41 39 36 34 31 30 28 27 29 33 33 33 31 30 28 28 28 27 30 31 31 30 31 30 27
50 51 50 48 48 49 49 46 46 48 48 47 46 46 46 44 44 40 38 37 36 31 30 30 27 26 27 27 31 30 30 29 27 28 28 28 29 29 28 29 29 25 22
50 51 50 47 46 50 50 47 47 48 46 43 42 40 39 38 38 38 37 35 33 32 32 31 27 26 26 25 26 26 25 27 27 26 26 25 25 24 24 25 26 24 22
50 48 45 43 42 46 47 48 47 45 41 40 39 37 36 35 33 31 32 30 30 31 30 28 29 25 23 25 26 27 26 24 26 22 21 22 22 22 22 22 22 21 20
45 40 39 38 38 39 40 42 43 42 39 36 35 33 32 32 32 31 29 30 30 32 30 30 28 28 29 29 28 28 29 28 28 22 17 13 10 13 18 16 16 16 15

GFSMW_sfc_temp_084.txt.gz
Temp
58 58 58 58 57 57 57 57 56 56 57 57 56 58 60 58 59 61 62 60 61 60 58 58 58 57 56 55 54 54 53 52 51 51 50 50 50 50 49 50 51 52 53
54 57 56 56 56 56 57 57 58 57 58 58 57 59 62 59 59 59 60 61 61 60 59 59 57 56 55 54 54 54 52 53 51 50 48 48 50 49 50 49 51 51 52
50 54 55 55 56 55 56 57 58 59 60 59 58 58 59 59 58 57 57 59 60 60 61 58 58 56 56 55 55 53 53 51 49 50 50 45 45 47 48 48 49 50 49
51 52 56 56 55 56 57 58 58 59 60 61 60 59 61 60 63 59 59 59 60 59 59 59 57 56 56 54 55 54 52 52 49 49 51 50 51 48 47 48 50 50 51
52 51 53 54 58 58 56 56 57 57 58 60 60 55 61 62 55 55 56 55 56 58 59 58 57 56 56 56 54 52 51 51 50 50 47 49 48 48 47 45 46 50 50
53 53 54 56 56 58 58 56 54 54 57 57 56 54 53 54 54 53 53 54 54 55 57 58 58 58 57 56 55 55 54 54 54 51 49 49 47 47 45 45 45 46 49
54 53 52 53 54 54 55 56 54 54 55 55 55 55 54 54 57 58 57 56 54 54 56 57 57 58 58 58 58 55 54 53 52 52 52 52 51 50 49 48 46 45 47
55 55 54 53 52 53 54 54 53 54 55 55 55 55 56 56 57 58 59 56 57 56 56 57 59 59 59 59 57 57 56 55 53 53 51 51 52 50 47 48 47 41 43
55 56 57 56 54 54 53 53 54 54 55 55 56 55 56 57 57 57 55 55 55 56 56 56 58 58 57 56 56 56 54 53 54 52 51 52 51 50 50 49 48 47 41
55 56 57 57 57 57 56 55 56 55 56 56 56 57 56 57 57 56 56 57 56 56 57 57 58 56 56 56 55 54 53 52 51 52 50 50 49 49 48 48 47 47 45
55 57 58 59 59 58 57 56 56 56 56 57 57 57 58 58 58 58 58 58 57 58 58 58 57 56 56 55 54 54 52 51 50 49 49 49 48 47 47 47 46 45 44
56 57 57 57 58 57 57 57 57 57 58 58 58 58 59 59 58 59 60 60 58 58 59 58 58 57 56 54 53 51 51 50 48 48 48 47 48 47 46 45 44 44 43
55 56 56 57 58 58 58 58 58 57 59 59 59 59 58 58 59 60 60 59 58 59 58 58 58 58 55 52 51 50 49 49 49 48 47 47 46 45 44 43 43 42 43
57 56 56 57 59 59 59 58 58 58 58 59 59 58 57 58 58 58 57 56 57 58 57 58 58 56 53 52 50 49 48 47 47 47 47 46 45 45 43 42 41 40 38
58 57 58 57 58 57 58 59 59 58 58 57 57 57 56 55 55 54 54 55 57 57 58 54 52 51 50 49 49 48 47 47 45 45 44 42 42 41 42 40 37 36 34
59 61 61 59 56 57 57 55 54 53 55 56 55 52 52 52 52 51 51 50 50 50 49 48 47 46 47 43 42 45 46 45 43 38 37 38 38 37 37 37 36 35 33
59 61 61 61 59 53 51 50 51 52 52 51 51 50 50 49 49 49 49 48 47 46 45 45 46 45 44 40 41 41 43 40 38 36 36 37 36 34 35 34 34 33 34
59 58 58 51 50 49 50 51 52 51 50 50 49 49 49 48 47 47 46 45 45 45 44 44 45 44 41 38 38 37 38 35 35 35 34 34 33 33 32 31 31 30 31
62 57 51 50 50 50 52 51 50 50 49 49 48 48 47 46 45 44 44 44 44 44 42 42 41 39 36 36 36 36 35 33 32 33 33 33 32 33 33 30 29 29 30
53 50 51 51 52 51 52 50 49 49 47 47 47 47 47 46 44 44 44 44 42 40 38 36 36 36 35 36 36 35 33 31 31 32 32 32 31 31 32 29 28 26 27
48 50 50 50 50 51 51 49 49 46 47 47 46 46 46 45 44 43 43 40 37 35 33 32 32 33 34 34 35 35 32 31 30 30 29 29 30 31 31 31 29 27 27
49 49 48 47 49 51 50 47 45 47 47 46 45 44 44 44 42 40 39 38 36 32 31 30 29 30 31 33 33 33 32 32 30 29 29 28 29 30 30 29 29 27 25
48 48 47 47 47 48 49 44 45 46 44 42 40 40 40 40 40 38 36 35 34 32 31 30 28 27 28 28 29 29 28 29 28 28 28 28 29 29 29 29 28 24 23
47 48 47 45 43 45 44 44 43 44 42 39 37 37 35 34 35 35 35 34 32 32 31 30 28 27 26 26 27 27 27 28 28 27 27 26 26 26 26 26 25 23 22
43 44 43 42 41 42 41 41 41 40 36 34 34 33 32 31 30 29 30 30 30 31 29 29 28 26 25 26 26 26 26 26 27 25 24 24 23 22 22 22 22 21 21
39 37 36 35 35 35 36 37 39 37 34 31 31 31 30 30 30 29 28 31 30 30 30 29 28 28 29 28 29 28 27 26 26 23 20 18 17 18 19 18 18 18 17

GFSMW_sfc_temp_087.txt.gz
Temp
62 62 60 59 59 59 58 57 57 58 58 59 58 59 57 59 60 62 62 64 67 65 66 66 65 65 64 65 64 62 62 62 63 62 62 63 63 62 64 65 65 66 66
59 60 58 58 58 58 58 58 57 58 59 60 59 61 59 61 61 61 61 61 62 64 65 66 66 64 65 64 63 64 63 65 63 64 64 61 62 63 64 64 64 64 66
58 59 57 58 58 57 57 58 58 59 59 58 58 57 60 59 58 59 59 61 63 66 67 66 66 65 66 65 64 65 64 64 62 62 65 57 58 62 63 61 57 58 62
60 61 58 57 58 59 59 59 59 59 60 60 60 58 61 60 62 61 61 61 63 66 68 67 67 66 66 66 66 65 64 64 62 61 62 62 64 62 60 55 55 62 55
60 60 60 60 59 60 59 61 60 60 61 60 62 61 63 66 62 62 62 62 66 67 67 67 67 66 65 65 64 62 62 63 64 63 61 60 61 61 59 55 57 56 61
60 62 63 62 61 60 59 59 59 61 61 62 63 61 64 64 61 64 63 63 64 65 65 67 66 66 65 64 64 64 63 63 63 64 63 61 60 57 56 53 54 53 52
62 61 60 60 61 59 59 58 58 60 61 61 64 62 63 63 64 63 64 63 62 62 64 64 64 65 65 65 65 64 63 63 62 62 61 61 63 63 58 55 50 55 58
63 62 62 62 61 60 58 58 58 58 61 61 62 63 64 64 64 65 66 64 64 65 65 64 65 66 66 65 65 64 64 63 61 61 60 59 57 56 57 55 53 45 48
62 63 63 62 62 61 59 57 57 57 60 61 61 62 63 63 64 64 65 65 65 65 65 65 65 66 66 65 65 64 62 62 61 56 55 54 53 53 55 54 53 54 43
61 64 64 62 63 62 61 57 58 58 62 62 62 62 62 63 64 64 63 65 65 66 66 65 65 66 65 65 64 62 61 59 57 56 53 53 52 52 51 51 52 53 50
62 63 65 65 64 63 62 59 59 61 61 62 62 62 62 62 63 63 63 64 65 65 65 66 65 64 61 57 56 57 58 55 55 53 52 53 54 51 50 50 49 49 52
64 64 64 65 64 63 62 62 61 61 62 62 62 61 62 62 61 61 63 64 64 65 64 65 63 62 60 59 57 57 56 55 54 53 53 54 52 50 48 48 48 48 47
65 63 63 63 64 64 63 63 62 62 63 63 62 61 61 61 61 60 61 62 62 64 64 63 63 60 59 58 58 56 55 54 53 53 52 51 49 47 46 46 45 44 44
66 65 64 64 65 64 64 64 64 63 64 63 62 61 61 62 62 61 62 63 65 64 65 64 63 61 60 59 57 54 53 52 52 51 50 49 48 46 45 44 44 44 43
66 65 65 65 65 64 63 64 64 63 64 63 62 62 63 64 64 63 64 64 64 63 64 62 62 59 57 54 53 52 50 50 48 47 46 45 45 43 43 44 41 41 37
68 68 66 65 64 64 63 62 62 62 63 62 61 63 63 62 62 62 62 61 60 59 59 58 56 53 51 44 43 47 48 48 43 38 37 37 37 36 36 36 36 39 38
67 68 66 66 65 64 62 61 60 61 61 61 61 57 56 56 55 54 54 54 53 50 50 48 48 46 45 40 41 41 44 40 38 36 36 36 35 35 35 34 35 34 34
68 67 66 63 60 59 59 57 57 55 55 54 53 53 52 52 51 50 49 47 47 46 46 45 45 42 39 38 38 37 37 36 35 35 35 34 33 34 35 34 34 35 35
68 68 65 57 54 56 56 56 54 53 52 51 50 50 50 48 47 45 45 45 44 42 41 41 39 37 36 36 36 36 34 32 32 33 34 34 33 32 34 34 34 34 35
63 59 57 55 54 55 56 55 51 50 48 48 47 48 47 46 45 44 43 42 40 38 37 35 35 35 34 35 35 35 33 31 31 33 31 30 32 32 32 33 34 32 34
54 56 56 53 53 54 54 50 49 46 47 47 47 46 46 45 44 43 41 39 36 34 32 31 32 33 34 34 35 35 33 32 31 30 30 32 31 32 32 32 34 31 32
50 52 50 50 52 53 50 47 45 47 47 46 45 44 44 43 42 39 38 37 35 32 31 30 29 30 31 32 32 32 31 31 30 29 30 30 29 29 30 30 30 28 28
48 49 49 48 49 49 48 44 44 46 45 43 41 39 39 39 39 38 36 35 34 33 31 30 28 28 28 28 29 29 28 28 29 29 28 27 29 29 30 29 28 26 28
46 47 45 43 43 46 47 47 47 46 43 39 37 35 34 34 35 34 34 34 32 31 31 29 28 28 28 28 29 29 29 28 29 27 28 27 27 27 28 27 27 28 27
43 43 41 39 39 41 42 43 43 42 38 36 35 33 33 32 31 31 31 31 31 32 31 31 32 30 28 28 28 29 29 29 28 29 29 29 28 27 27 26 26 25 24
38 37 38 37 37 38 38 39 40 39 37 34 33 32 32 32 32 30 29 31 31 31 31 30 31 30 29 30 29 29 28 28 26 28 26 25 24 24 24 23 23 23 21

GFSMW_sfc_temp_090.txt.gz
Temp
74 71 70 65 65 60 60 61 62 61 61 59 58 59 58 60 60 61 66 69 68 67 69 68 67 67 70 70 70 70 67 67 69 67 69 70 70 70 73 74 75 74 74
71 69 69 65 63 60 59 61 64 63 65 62 60 61 60 60 60 61 64 70 69 70 71 72 70 71 69 69 67 66 67 69 69 69 70 66 69 71 72 74 73 72 74
71 69 67 66 63 61 61 60 61 62 65 65 62 59 59 58 59 59 60 66 72 73 73 73 73 71 72 68 67 69 70 69 70 70 70 66 64 72 74 70 72 70 68
74 72 69 67 65 64 64 66 61 62 64 63 64 60 60 61 64 62 64 64 70 72 74 74 73 71 70 70 71 72 71 71 70 70 70 70 70 66 62 71 69 70 66
75 73 71 69 67 65 65 65 64 61 62 65 64 61 61 68 66 64 63 63 64 65 69 72 71 71 72 72 72 71 70 72 71 70 70 68 69 69 66 65 66 69 70
75 75 74 72 69 65 65 66 66 62 61 62 62 61 60 62 63 62 61 62 64 66 66 75 73 73 72 71 71 71 69 69 70 71 71 70 68 68 66 63 66 64 69
74 74 73 71 70 65 64 66 66 64 63 62 63 64 66 67 68 66 66 64 68 67 69 72 71 71 71 72 71 70 70 69 68 69 68 70 70 70 68 63 63 61 61
75 75 75 73 72 68 65 63 64 65 66 66 63 67 70 72 72 71 72 71 71 72 71 71 71 71 71 71 71 71 71 71 69 68 69 69 69 67 66 62 51 49 49
76 77 76 74 73 71 68 65 66 68 67 66 67 67 69 71 71 72 72 73 72 73 73 71 71 71 71 71 71 71 70 70 68 67 67 66 66 65 62 55 57 52 48
77 79 78 75 75 73 72 68 68 68 70 70 69 69 69 70 71 71 70 71 72 72 72 71 71 71 71 71 71 71 70 67 66 63 62 61 61 60 57 54 55 53 52
76 78 79 78 76 75 73 69 67 68 69 71 70 70 70 70 70 70 71 71 71 72 71 71 71 71 71 72 71 70 68 63 60 60 58 58 57 55 54 54 55 52 51
78 78 78 77 76 74 73 70 68 68 69 71 71 70 70 70 69 69 70 71 70 71 71 72 71 71 71 71 68 62 57 57 58 60 60 57 55 54 54 55 54 51 51
78 77 76 76 76 75 74 73 71 70 71 71 71 69 68 69 69 69 69 70 69 70 71 70 70 70 70 70 66 60 58 58 60 61 59 56 55 53 55 55 51 52 47
79 78 76 76 76 76 75 75 74 73 72 71 71 69 68 69 69 69 69 68 68 68 68 69 70 70 70 70 69 65 59 58 58 58 56 54 54 53 51 48 46 45 44
77 78 78 77 77 76 75 75 75 73 73 71 70 69 69 70 70 69 69 68 67 68 70 70 70 70 69 68 65 59 57 56 54 51 48 46 48 45 45 46 47 44 41
78 80 80 79 77 76 75 74 73 73 71 70 70 71 70 70 69 69 68 69 69 70 70 69 68 65 58 43 44 48 53 49 44 39 38 37 37 36 35 35 34 36 36
78 78 80 78 77 77 75 75 73 73 70 69 70 70 70 69 69 69 69 68 67 66 60 51 49 46 44 40 40 41 43 40 38 37 36 35 35 34 34 33 34 33 33
77 78 80 80 78 77 76 74 74 71 68 69 69 69 67 66 64 62 58 52 50 48 47 44 42 39 38 37 37 37 36 35 34 34 34 33 32 32 32 34 34 35 35
77 79 81 82 74 73 73 71 69 69 67 64 59 59 60 54 50 48 47 46 43 41 40 39 38 36 35 36 36 36 35 33 32 32 32 32 31 31 34 33 33 34 34
74 74 74 71 70 69 69 66 60 59 53 52 51 50 49 48 46 45 42 41 40 37 37 35 35 35 34 35 35 35 34 31 30 31 31 31 31 31 31 34 35 33 36
64 66 67 65 65 65 63 56 51 48 48 49 48 47 47 45 43 41 40 38 35 34 32 31 31 32 33 34 35 35 33 32 31 30 30 31 30 30 30 30 33 31 34
58 60 58 56 58 59 54 48 46 47 47 45 44 44 43 43 41 39 38 37 35 32 31 30 30 31 32 32 33 33 33 33 31 30 32 31 28 29 30 31 30 29 30
53 54 51 49 51 52 50 44 44 44 44 42 40 40 40 40 40 38 36 35 34 32 31 31 29 29 30 30 30 30 30 30 32 32 29 29 30 30 30 30 29 27 31
47 48 44 43 43 46 47 46 46 46 43 39 37 37 37 35 36 36 36 34 33 32 31 31 30 30 31 33 35 34 34 31 33 30 32 30 29 28 29 29 29 31 30
44 43 41 40 40 43 44 47 47 45 39 37 36 35 34 33 31 32 31 30 30 32 32 33 33 32 30 29 30 31 31 31 30 31 33 31 31 30 30 30 30 29 29
40 39 40 40 42 44 45 44 44 43 40 37 36 35 34 32 31 30 29 30 31 32 32 32 31 30 29 29 29 29 28 28 28 31 29 27 27 26 27 26 26 26 25

GFSMW_sfc_temp_096.txt.gz
Temp
83 77 76 72 69 64 62 62 61 61 61 59 58 60 60 61 61 63 64 63 64 65 66 65 66 64 64 63 63 62 62 61 63 62 61 60 64 64 63 63 63 65 65
76 74 72 70 66 63 62 63 62 62 62 61 60 59 60 60 60 60 61 62 63 64 65 64 64 64 63 62 62 61 60 61 61 58 58 55 58 60 62 61 63 61 65
76 73 71 69 66 63 61 63 64 63 62 62 60 59 59 59 58 58 59 61 62 63 64 63 63 62 63 62 61 62 61 59 59 60 59 55 53 56 59 60 60 61 61
78 74 72 68 65 63 64 65 66 65 62 64 62 60 58 56 58 59 58 59 60 61 63 64 63 62 63 62 62 64 62 62 58 59 64 60 60 54 53 58 62 63 62
78 74 73 71 68 66 65 65 65 65 64 63 63 62 61 61 60 58 58 58 60 60 63 63 61 61 62 61 61 62 61 62 61 60 59 58 59 59 55 52 56 62 64
79 77 76 74 69 66 64 65 64 64 64 65 63 63 62 60 59 59 58 59 60 61 62 64 62 63 63 61 62 62 63 62 62 62 60 59 58 57 55 53 55 55 58
78 76 74 72 70 65 65 63 63 62 63 64 64 64 62 61 60 60 60 60 60 61 62 63 62 62 63 64 64 64 63 62 60 60 60 60 60 61 59 56 55 55 58
78 77 75 73 71 65 65 65 64 63 63 64 63 64 63 63 62 62 62 61 61 62 64 64 65 63 64 64 65 62 62 61 61 60 60 60 60 61 60 59 55 54 56
77 78 76 74 71 67 65 65 65 65 63 63 64 64 64 64 63 63 63 62 62 63 62 63 64 62 65 66 63 62 61 61 61 60 60 60 61 61 61 59 58 56 52
78 78 78 74 74 70 68 66 67 66 64 64 64 65 64 63 64 63 63 63 63 64 63 62 63 63 63 64 64 63 62 62 61 62 60 60 61 61 61 61 58 56 55
78 78 79 77 76 72 70 68 68 69 66 65 64 64 64 63 64 64 65 65 64 64 64 64 64 64 65 65 64 63 63 62 62 61 60 61 62 60 60 56 56 56 56
80 79 79 77 76 73 71 68 68 69 68 67 65 64 64 64 64 64 65 66 65 66 66 67 66 66 66 66 63 62 63 62 61 62 61 62 62 59 57 56 56 56 57
81 80 80 78 77 75 72 70 69 69 70 69 67 65 65 64 64 65 66 66 67 67 67 67 66 66 65 65 64 64 63 63 63 63 61 62 57 55 56 56 56 56 54
80 80 80 80 78 77 75 73 70 70 71 70 68 66 65 65 65 66 66 66 67 66 66 67 67 66 66 67 66 66 64 64 63 59 51 45 43 44 48 53 53 52 51
78 80 79 78 79 78 76 75 72 71 71 70 69 67 67 67 67 66 67 67 67 67 67 66 66 66 66 64 58 63 61 57 45 40 39 38 39 38 37 41 38 42 41
76 79 81 81 79 78 76 75 74 71 70 70 69 70 68 68 67 67 66 66 66 66 66 65 63 56 48 39 41 47 45 43 39 36 35 35 36 35 35 35 34 34 35
76 78 78 80 79 78 78 76 75 73 70 70 70 70 69 68 67 67 67 65 64 62 56 47 44 40 39 38 38 38 38 36 35 34 34 33 34 34 34 33 34 34 34
69 70 75 77 78 80 80 78 79 76 71 70 71 71 69 68 67 66 64 53 48 44 41 39 38 36 36 36 36 35 34 33 32 32 32 32 32 33 33 33 32 31 31
65 66 68 71 74 77 78 79 78 76 74 71 70 71 69 67 64 53 46 43 40 38 36 36 35 34 34 35 35 34 32 31 30 32 31 31 31 33 35 32 31 32 31
63 62 64 68 71 75 76 76 76 75 70 69 68 65 59 50 45 42 39 38 36 34 34 33 34 34 33 35 35 34 33 30 29 30 31 31 31 32 32 32 31 29 29
59 60 63 65 69 70 73 66 56 51 51 50 48 47 46 42 39 37 36 34 33 33 32 32 32 33 34 34 35 35 33 31 31 30 29 30 32 32 33 31 28 28 29
55 56 57 56 56 56 54 49 45 46 46 44 42 40 40 39 37 35 34 34 33 31 30 29 29 31 31 33 34 35 34 34 31 30 30 30 32 32 32 30 31 31 30
50 50 49 49 48 50 49 42 41 42 41 40 38 37 37 36 36 34 33 32 32 30 30 29 28 29 31 31 33 33 33 33 30 30 31 32 33 32 30 30 30 29 26
44 45 45 43 42 43 42 41 41 41 39 36 35 36 34 34 35 35 34 33 31 30 30 30 29 28 28 30 31 31 31 32 31 31 30 29 30 29 29 29 28 26 24
41 42 41 40 40 40 40 40 40 38 35 34 33 32 31 31 30 30 31 30 31 32 29 28 27 25 23 25 29 29 28 29 29 30 29 27 26 26 26 25 24 24 22
33 32 31 34 38 40 39 38 38 37 34 31 31 30 29 29 28 27 26 29 29 29 29 28 26 26 28 30 30 30 31 32 32 27 23 21 20 18 20 19 19 19 17

GFSMW_sfc_temp_102.txt.gz
Temp
65 62 61 59 57 57 57 57 57 59 59 58 58 58 59 60 61 62 64 64 63 65 65 64 63 63 62 61 60 59 59 55 57 55 54 56 58 59 59 61 59 58 58
61 60 58 57 57 57 56 56 57 60 60 59 58 58 59 61 61 61 63 63 62 64 66 65 65 63 63 60 60 59 55 55 56 55 53 53 56 57 57 58 59 57 59
59 58 57 56 55 56 56 57 57 59 59 60 59 59 59 61 59 60 59 61 61 63 66 64 64 63 64 62 62 62 60 60 56 61 54 50 49 52 55 56 57 55 55
62 59 57 55 55 56 57 57 57 57 58 60 59 58 59 59 60 60 60 58 59 60 63 62 63 63 63 61 63 63 60 59 58 56 58 56 55 50 51 55 55 55 57
62 59 57 57 56 57 57 57 57 57 58 59 60 58 58 59 60 60 58 58 59 60 61 62 60 60 61 59 60 60 58 59 56 56 54 54 53 54 53 49 52 53 55
62 61 59 57 55 56 58 57 57 57 59 59 60 59 57 57 57 58 57 57 58 59 60 60 60 59 59 58 59 59 59 58 57 57 56 55 54 53 52 50 51 52 54
61 58 55 55 55 55 57 58 57 58 59 59 60 59 58 58 58 58 57 57 57 57 58 59 58 59 59 59 59 59 59 59 57 56 56 57 58 56 55 53 51 51 53
61 59 57 56 56 56 57 58 58 59 60 60 57 59 60 59 59 59 59 58 58 57 58 60 61 60 61 59 59 59 58 59 57 57 57 57 58 57 57 55 53 49 49
61 59 59 57 57 57 57 57 58 60 60 60 60 59 59 58 59 60 60 59 59 58 57 58 59 60 60 60 59 59 58 58 58 57 57 57 58 56 56 55 54 53 50
63 61 60 58 58 58 59 58 59 61 61 61 61 61 59 58 58 59 59 59 58 58 57 58 60 60 60 61 60 60 59 58 58 58 57 57 57 56 55 56 57 55 55
62 63 62 60 59 59 58 58 59 60 61 61 61 61 60 59 57 58 58 59 59 59 60 60 60 59 57 59 60 59 59 58 58 57 57 58 58 58 57 56 56 56 55
65 65 65 61 59 58 58 58 59 60 61 62 61 61 61 60 58 57 57 59 58 58 59 61 61 60 59 58 58 59 60 58 57 57 55 57 58 57 57 57 56 56 57
59 58 61 61 59 59 59 59 59 59 60 61 62 61 60 60 59 57 58 59 59 58 59 59 60 60 60 59 57 58 57 56 57 58 57 58 55 54 53 53 54 55 54
60 57 57 58 59 60 60 60 60 60 60 60 60 60 60 60 60 59 58 58 59 57 58 59 59 59 59 59 60 59 58 57 55 48 45 43 43 44 45 47 44 46 44
59 59 59 56 59 60 60 60 60 61 60 59 59 59 60 61 60 59 58 59 59 59 58 59 59 59 59 59 58 59 57 53 42 39 39 39 39 38 38 41 39 40 39
58 58 59 60 59 60 60 62 61 61 60 59 58 59 59 60 60 59 58 58 58 59 58 59 58 57 55 41 43 52 47 43 39 36 36 36 37 36 36 35 35 35 36
57 56 56 57 58 56 57 58 61 61 61 60 60 59 59 59 59 59 58 58 57 58 59 55 50 42 40 39 41 40 40 38 36 35 34 34 35 35 34 33 33 33 33
54 54 54 54 53 53 54 56 61 63 61 61 61 60 59 59 59 58 58 57 53 48 43 41 39 37 37 37 37 37 36 34 34 34 34 33 32 33 32 31 30 30 31
52 52 52 53 51 50 51 51 51 54 62 62 61 61 60 59 59 57 56 44 42 40 38 37 36 34 34 35 36 35 33 32 31 32 32 33 32 34 34 30 29 29 30
49 49 50 50 48 47 49 47 46 46 46 49 57 57 58 58 56 46 42 40 39 36 35 34 34 34 33 35 35 35 33 30 30 30 30 31 30 31 32 30 28 26 27
46 47 47 46 45 46 46 43 43 42 44 45 48 47 48 46 43 40 38 36 34 33 32 32 32 33 33 33 35 34 32 30 29 28 28 29 31 31 30 29 27 27 28
42 44 43 44 42 43 44 41 40 41 42 41 41 42 43 41 39 37 35 35 34 32 31 31 31 32 32 33 33 32 32 32 29 28 29 30 30 29 28 27 27 26 24
39 40 40 41 40 41 41 39 39 40 39 38 37 37 37 37 36 34 33 32 33 32 30 30 28 28 30 31 32 32 31 30 29 29 30 30 28 27 26 26 24 22 21
34 36 37 38 37 38 38 38 38 38 37 35 35 35 34 34 35 34 34 32 31 30 29 28 27 27 28 28 29 30 30 31 29 26 25 25 24 23 22 22 22 21 19
34 34 34 34 36 37 36 37 36 35 32 31 30 30 29 29 29 29 29 29 30 29 27 27 27 26 25 27 29 29 27 26 25 25 23 22 21 19 19 19 19 19 18
31 31 32 32 33 35 34 34 35 34 31 29 29 28 28 28 28 28 27 30 29 30 29 29 28 28 30 31 31 29 28 27 25 20 17 15 16 15 15 14 14 15 15

GFSMW_sfc_temp_105.txt.gz
Temp
58 60 58 57 57 57 56 56 56 56 58 59 58 58 59 60 61 62 62 63 62 62 61 61 60 59 60 59 58 57 56 53 56 56 53 53 54 54 55 56 56 57 57
56 58 56 56 56 56 56 56 56 57 58 58 57 59 59 60 60 61 62 61 61 62 62 61 61 59 60 57 59 58 53 53 56 54 52 48 52 55 55 56 57 55 57
57 58 56 56 56 55 55 56 57 57 58 60 59 58 58 60 59 60 62 61 60 62 62 62 62 61 61 59 59 59 55 57 52 59 54 48 49 50 53 54 54 55 55
61 60 58 54 55 55 55 56 58 56 57 58 58 59 58 58 59 59 60 61 60 61 62 63 63 62 62 61 61 62 58 58 56 53 57 56 55 50 48 53 54 56 56
60 60 58 57 55 55 56 56 57 55 56 59 59 57 58 60 60 58 58 59 60 60 61 61 61 60 61 60 61 60 58 61 58 57 54 54 54 53 52 49 52 53 54
60 61 59 56 55 55 55 55 57 58 56 57 59 59 58 58 59 58 56 58 59 59 60 61 60 59 59 58 58 59 59 60 58 57 55 54 54 52 52 51 52 52 54
57 59 54 54 55 55 55 56 57 57 56 60 59 58 58 59 59 59 57 56 57 58 59 60 59 59 59 59 58 58 58 57 56 57 55 57 57 56 54 53 53 52 53
62 59 55 56 55 55 55 57 57 57 57 56 58 59 59 59 59 60 59 58 58 59 59 60 59 59 59 59 58 57 57 57 57 57 57 56 57 57 56 55 53 50 49
58 57 56 55 55 55 55 57 57 56 57 57 58 58 58 58 59 59 59 59 59 58 59 59 59 58 59 59 59 58 57 57 57 57 56 56 57 57 57 56 55 54 48
59 58 55 55 56 56 56 57 57 57 57 58 57 57 57 59 59 59 58 58 58 58 57 57 57 57 58 58 58 57 57 57 57 57 56 56 57 56 56 55 55 54 54
55 57 58 56 56 55 55 56 56 57 57 58 58 57 58 58 56 58 59 58 58 58 57 57 57 57 57 57 57 57 57 57 58 58 57 57 57 57 55 56 55 55 55
59 57 59 56 56 57 57 54 56 57 58 58 58 58 59 58 56 57 59 58 57 58 57 57 57 57 58 58 58 58 58 58 57 57 56 57 56 55 57 55 55 55 55
57 55 57 55 56 56 58 58 55 56 57 58 58 58 57 57 57 55 55 58 58 58 58 57 57 58 58 58 58 58 58 56 57 57 56 58 57 56 56 54 53 54 53
58 56 55 57 58 58 57 58 58 57 57 57 57 57 57 57 57 57 55 56 57 57 56 58 59 59 59 59 58 56 54 54 55 52 49 46 47 47 47 48 47 46 45
57 56 55 56 57 57 58 59 58 58 57 56 56 56 57 57 59 56 55 56 56 57 56 56 56 56 56 56 54 54 53 52 44 41 40 39 39 39 40 42 40 42 40
54 56 56 56 55 55 55 57 59 58 59 57 56 58 58 57 57 57 56 55 55 55 56 55 55 54 54 47 46 50 51 46 41 37 36 37 37 36 36 35 35 35 37
53 53 53 53 52 52 53 53 55 59 59 58 59 58 58 58 57 58 58 56 54 55 54 53 53 51 47 41 43 42 44 41 39 36 35 34 35 34 33 33 33 33 33
51 51 51 52 51 50 51 52 53 55 59 59 59 59 58 58 59 57 57 56 55 54 51 45 43 40 39 39 40 39 38 36 35 35 34 33 32 32 32 31 31 30 30
49 49 50 50 47 46 47 48 49 50 50 58 59 59 59 58 58 57 55 53 47 44 41 39 38 37 35 37 37 37 34 32 32 33 33 33 32 33 34 31 29 28 27
46 46 46 47 44 43 45 45 45 45 45 46 50 58 59 57 56 56 47 41 41 37 36 34 35 35 34 36 36 36 34 30 29 30 30 32 31 32 31 29 28 25 24
42 43 44 43 41 44 46 44 43 40 42 44 45 46 54 56 51 45 43 39 36 34 33 32 32 33 33 34 35 35 32 30 29 29 29 30 31 30 30 28 26 24 25
38 39 41 40 40 42 42 40 38 40 41 41 40 40 41 42 44 41 37 36 34 32 31 30 30 31 32 33 33 32 32 32 29 28 28 28 29 28 27 26 26 25 23
36 38 38 39 39 39 39 37 37 39 38 37 36 36 36 37 37 37 36 34 34 32 31 30 28 28 30 31 32 31 31 31 29 28 28 28 27 26 25 25 23 21 19
35 36 36 35 36 37 37 36 36 37 36 34 34 34 33 33 34 34 34 33 32 31 30 28 27 27 28 28 30 30 30 29 27 25 23 22 22 21 21 21 20 19 18
33 33 33 33 33 35 35 36 35 34 31 31 30 29 30 29 29 29 30 30 30 31 29 29 29 27 26 28 29 28 26 25 24 23 22 20 19 18 18 18 18 18 17
30 30 31 31 32 32 32 33 34 33 31 29 29 29 29 28 28 28 27 30 30 31 31 31 30 29 31 30 30 29 28 26 25 20 17 15 15 15 15 14 14 14 14

GFSMW_sfc_temp_108.txt.gz
Temp
60 56 55 56 57 58 58 58 58 56 59 59 59 60 60 60 61 62 62 62 62 63 63 61 59 59 59 58 58 57 56 52 56 54 52 53 54 54 54 56 56 57 58
58 56 54 55 58 59 58 57 58 57 59 61 60 60 59 60 61 61 62 62 61 63 60 59 59 59 58 57 58 58 52 52 56 53 52 49 53 55 56 55 56 56 58
60 56 54 55 56 57 57 57 57 59 58 57 59 57 59 59 59 60 61 61 61 60 60 59 58 59 59 57 58 58 56 55 52 59 53 48 49 51 53 54 54 56 55
60 58 55 54 56 58 57 56 58 59 56 57 57 56 57 58 59 59 61 60 60 60 60 60 59 59 60 58 59 60 55 59 54 54 56 54 52 49 48 52 54 55 56
59 59 56 57 58 57 55 58 59 57 55 56 58 58 58 59 59 58 59 58 58 59 60 60 59 59 60 59 60 57 57 60 56 57 53 54 53 53 52 50 51 53 56
59 58 57 55 57 56 57 58 57 57 54 56 58 58 57 58 58 57 57 57 58 58 58 60 60 59 59 58 58 59 58 60 60 56 55 54 54 54 53 51 52 53 55
55 54 54 53 55 55 56 57 57 57 57 55 58 58 57 59 58 57 57 58 57 58 58 59 59 58 58 58 58 57 57 57 57 56 55 56 57 56 56 54 53 54 55
57 54 54 53 56 56 56 57 57 57 57 58 58 58 59 59 59 59 58 58 59 58 58 58 59 58 58 58 58 57 56 56 55 56 57 56 57 57 57 56 54 51 51
54 55 54 54 57 57 56 58 58 59 58 58 58 58 58 58 59 59 59 59 59 59 59 58 58 59 59 58 58 57 56 56 56 56 56 56 57 57 57 56 55 54 50
55 55 55 53 57 56 58 58 58 58 58 58 59 58 58 58 59 59 59 58 58 59 59 58 59 58 58 59 58 57 57 56 56 56 56 56 56 56 56 55 55 54 53
54 55 56 55 56 56 57 58 57 57 57 58 55 54 54 58 58 58 58 58 58 58 59 59 59 58 58 59 58 58 57 57 56 56 56 56 56 55 55 55 54 54 54
54 57 56 55 54 54 56 57 57 58 58 58 56 54 54 55 54 57 57 58 57 58 57 57 58 58 58 58 58 57 57 57 56 57 56 56 56 55 56 56 55 55 56
55 56 56 56 56 55 55 57 57 58 58 59 56 54 54 54 55 56 57 57 57 57 57 57 56 57 58 57 58 58 57 57 57 57 56 57 57 56 56 55 55 54 53
54 54 54 56 56 57 56 56 55 56 57 57 58 56 54 55 56 55 56 57 57 57 57 57 57 56 56 57 56 57 56 57 57 55 54 53 51 52 51 51 51 49 48
52 53 53 52 53 54 56 57 56 56 56 55 55 56 57 57 57 56 55 56 56 57 57 57 57 57 56 56 56 57 55 53 48 43 41 40 40 40 41 45 44 45 43
52 51 52 52 51 51 52 53 54 56 56 56 55 56 56 56 57 56 55 55 55 55 55 55 56 54 54 46 46 52 53 51 45 39 37 37 36 36 36 35 35 36 38
51 51 51 50 50 49 50 49 51 54 56 56 56 56 56 56 56 56 55 55 54 55 54 53 52 49 49 42 44 44 49 47 42 37 35 34 34 34 33 33 33 33 32
48 48 48 48 47 46 46 47 50 51 51 56 58 57 57 56 56 56 55 54 54 53 53 51 50 46 43 40 41 39 40 38 37 36 35 33 32 32 32 30 28 28 28
45 45 46 45 44 44 46 48 47 47 48 47 52 56 57 57 56 55 55 54 53 50 47 45 43 42 38 38 38 38 35 33 33 33 33 33 32 34 34 29 26 26 26
42 42 44 44 42 43 45 46 44 43 42 43 44 47 51 56 55 55 54 46 48 40 38 35 35 36 35 36 37 36 34 32 31 31 31 32 31 32 32 29 27 23 23
38 40 43 40 40 41 42 41 40 38 40 41 42 42 43 51 56 54 45 42 38 35 33 32 33 33 34 35 36 35 33 31 30 30 29 30 31 31 30 28 25 23 24
38 39 40 40 39 38 39 37 35 38 40 39 38 38 38 39 43 44 40 37 36 33 31 31 30 31 32 33 34 34 33 33 29 27 28 28 29 29 28 26 26 24 22
36 36 35 37 37 37 37 34 35 36 37 36 35 35 36 36 37 36 36 35 35 33 31 30 29 29 31 31 33 32 31 30 27 27 28 28 27 26 24 24 23 21 19
32 33 34 34 33 35 35 34 35 35 33 32 31 31 31 32 33 33 33 33 33 32 31 29 28 28 28 29 30 29 29 29 26 24 21 21 21 20 19 19 19 19 18
32 33 32 31 31 32 32 33 34 34 31 30 30 30 30 30 29 30 30 30 30 32 30 29 29 27 26 28 29 27 24 22 22 21 20 19 18 17 17 18 17 17 17
30 29 29 29 29 30 29 30 31 31 30 29 29 29 29 29 29 29 28 32 31 32 31 31 30 29 30 29 29 28 27 26 24 20 17 15 15 15 15 14 13 14 13

GFSMW_sfc_temp_111.txt.gz
Temp
76 74 69 66 67 67 67 67 66 65 64 62 61 62 61 62 62 63 63 63 63 62 63 62 61 62 62 63 66 65 64 63 67 64 63 65 65 66 68 69 70 69 70
72 73 69 62 62 63 66 65 66 64 65 65 63 67 63 62 63 64 64 65 63 63 63 61 60 60 60 61 63 65 64 64 66 65 64 59 62 64 65 67 67 67 69
69 72 70 64 61 62 61 62 64 63 65 67 65 62 63 62 61 62 63 63 63 63 62 62 61 60 60 59 61 65 65 62 64 67 67 59 60 61 65 64 66 66 66
67 70 70 67 62 62 62 62 63 63 63 64 64 61 62 62 62 62 63 61 62 62 61 60 61 60 60 60 61 66 67 65 62 66 67 68 66 62 58 64 66 66 66
64 66 70 70 66 64 60 61 65 63 61 62 62 61 62 63 62 61 61 61 61 60 59 59 58 59 59 61 61 63 66 67 65 65 64 64 66 65 65 62 63 64 67
64 65 66 66 65 64 59 62 64 61 60 63 62 62 62 62 61 60 59 59 58 57 57 57 57 58 58 60 62 63 66 66 66 68 65 65 67 65 65 64 64 63 65
63 63 63 62 62 58 58 61 62 58 60 63 64 64 63 62 63 61 59 57 56 55 55 56 56 58 61 62 61 62 63 65 65 65 65 66 67 67 66 65 61 64 66
62 62 62 62 61 58 58 59 59 58 60 62 64 65 64 63 63 61 61 58 58 56 57 57 59 61 61 61 61 60 61 63 61 61 63 65 66 67 67 65 61 61 61
60 61 62 61 61 59 58 58 59 60 59 62 63 62 61 62 60 61 61 60 59 57 57 57 59 60 60 61 61 60 59 59 59 60 61 62 61 62 64 64 65 62 53
59 60 60 60 61 59 58 59 61 60 60 61 61 61 60 61 61 60 60 60 59 58 57 57 58 59 58 60 61 60 60 60 60 61 61 62 61 61 61 61 60 62 57
58 58 58 58 58 58 58 58 59 59 59 59 60 59 59 61 60 59 59 60 59 59 58 57 57 57 57 57 58 58 58 59 60 60 63 60 60 59 60 59 57 57 56
59 59 57 57 56 57 57 57 58 58 60 59 60 60 60 60 60 58 59 59 58 59 59 58 57 57 56 57 58 58 58 58 57 58 57 57 56 57 59 56 56 56 55
59 59 56 54 54 56 57 58 59 59 60 60 61 58 58 59 59 59 58 58 58 58 57 58 58 57 57 57 58 59 58 57 58 57 57 57 56 56 57 56 57 56 55
59 59 57 54 53 53 56 57 59 61 62 61 61 59 59 60 58 59 58 58 59 58 58 58 58 58 58 58 58 58 59 58 58 58 57 57 56 55 56 55 55 53 53
56 56 53 51 51 50 51 53 56 59 62 62 61 59 60 61 59 58 58 58 58 58 58 57 57 57 57 58 57 58 57 57 54 49 46 45 44 42 44 48 48 48 47
52 52 52 49 48 47 47 51 52 53 57 60 60 61 60 60 60 58 57 57 57 57 57 56 56 55 54 46 45 52 55 53 47 41 40 40 38 37 36 36 35 39 45
51 50 50 47 46 44 46 46 51 54 54 57 59 59 59 60 59 60 59 57 57 57 56 56 56 54 55 44 45 45 53 50 44 39 37 36 36 36 35 33 32 32 32
47 47 47 45 45 46 45 48 51 50 51 50 54 58 59 59 60 60 58 59 59 57 55 54 54 54 54 42 43 41 48 45 42 39 37 35 33 33 32 30 28 28 28
45 46 47 45 45 44 46 48 46 46 47 45 46 47 49 57 58 58 57 58 56 56 56 54 52 51 45 39 39 41 39 35 34 34 34 33 32 33 34 29 27 26 27
43 44 44 45 43 42 44 43 42 42 41 41 43 44 45 46 55 57 57 55 55 52 45 42 45 41 38 37 38 38 35 33 32 32 32 33 32 31 31 29 27 23 22
42 43 44 42 41 41 43 40 39 37 39 40 41 40 41 43 44 54 52 49 42 39 36 35 36 38 38 37 37 37 36 33 32 31 30 31 31 31 30 29 26 23 23
39 40 40 39 40 39 40 38 36 37 38 38 38 38 37 38 40 41 40 39 38 35 33 32 32 33 34 35 36 36 35 34 31 29 29 30 30 29 28 27 26 25 22
36 38 38 37 37 37 36 34 35 36 36 35 34 34 35 35 35 36 36 35 34 33 32 30 29 30 32 32 33 33 32 30 28 28 29 29 28 27 25 25 23 21 21
35 36 36 35 33 34 34 34 35 36 34 33 32 32 32 32 33 33 34 34 33 32 31 29 28 29 29 29 30 29 29 30 27 24 21 21 21 21 21 21 21 21 21
34 34 32 32 31 33 32 33 34 34 33 32 32 31 31 31 30 30 31 31 32 33 30 29 29 27 26 27 27 24 22 22 22 21 20 19 19 19 18 19 19 19 21
32 31 30 30 30 31 30 30 32 34 32 31 30 30 30 30 30 30 29 32 32 32 32 31 29 28 28 28 28 27 27 26 24 20 18 17 17 17 17 17 17 18 18

GFSMW_sfc_temp_114.txt.gz
Temp
86 89 89 87 83 82 81 79 77 77 68 67 65 66 67 66 69 71 66 64 65 65 65 64 64 65 65 70 69 71 72 71 74 71 68 70 71 72 76 77 77 77 77
84 86 86 84 79 80 78 78 79 77 68 68 72 72 66 66 67 67 66 66 64 64 64 63 63 63 66 65 66 70 71 70 74 69 69 61 64 70 74 76 76 74 77
81 81 83 83 81 77 77 78 79 78 72 75 71 74 73 68 68 67 66 65 65 64 63 63 62 62 63 63 64 69 71 68 71 73 71 65 64 68 72 71 74 73 74
78 80 82 83 81 77 76 75 77 76 74 76 73 73 72 70 70 71 70 66 70 68 64 63 61 61 61 62 63 66 68 71 68 73 76 75 75 67 63 71 71 73 72
76 77 80 83 83 77 72 68 71 71 73 75 76 74 73 74 70 72 71 69 67 65 65 63 61 61 60 61 61 64 66 69 73 72 71 71 72 74 72 65 68 72 74
74 76 77 78 79 74 67 65 68 67 68 70 74 73 70 68 68 69 67 66 64 63 61 61 61 60 60 59 61 62 65 71 72 72 72 71 71 71 72 72 69 68 71
73 74 75 76 76 72 65 63 67 65 63 66 69 71 69 66 66 66 69 64 60 58 58 59 58 59 59 59 60 61 63 68 70 69 72 73 74 76 74 73 71 70 73
72 72 72 72 70 66 65 63 65 64 63 67 68 69 68 69 69 72 70 63 60 58 58 57 57 58 58 59 59 60 61 65 68 70 71 73 74 74 75 74 68 65 65
69 70 70 70 68 64 63 62 63 64 64 70 70 69 68 68 69 71 67 61 61 57 56 56 56 57 57 58 58 58 58 62 65 68 70 71 72 71 70 71 70 66 62
66 65 67 65 65 64 63 62 62 64 64 69 68 69 68 70 70 68 62 60 60 58 56 57 57 57 57 57 58 59 62 64 65 64 64 67 66 66 67 67 67 69 64
66 65 61 61 62 61 61 60 60 61 63 65 66 67 66 69 68 66 64 61 59 58 57 58 57 57 59 59 59 62 62 63 64 65 65 65 66 65 64 63 63 63 62
66 66 64 57 55 58 59 59 59 60 62 63 64 63 65 68 65 62 61 61 58 58 58 57 58 58 61 62 62 64 64 64 63 63 63 65 65 64 63 62 62 62 63
66 66 65 61 52 52 56 57 58 59 62 63 61 62 63 65 66 65 63 61 59 58 57 57 56 57 58 58 60 61 60 61 61 61 63 64 65 64 63 63 59 59 56
66 64 62 58 53 50 50 51 56 60 61 61 61 62 65 67 68 68 65 62 60 58 58 58 57 56 56 56 57 58 58 59 59 59 59 58 58 58 56 55 56 55 54
61 61 59 55 51 49 49 50 51 53 60 61 62 63 65 67 65 65 66 65 63 61 60 59 58 57 56 56 56 57 58 59 57 54 54 51 49 45 47 53 54 54 54
59 59 58 57 51 46 48 49 49 52 54 56 62 64 62 63 64 64 63 63 64 65 65 62 57 56 56 47 46 53 56 57 56 47 42 41 39 37 36 36 35 37 48
56 56 55 54 54 49 46 47 47 49 51 52 57 61 61 60 61 64 63 62 61 63 62 60 59 59 57 44 45 45 56 55 49 42 39 38 37 36 35 34 33 32 33
55 55 55 54 54 55 49 49 46 47 47 48 48 49 54 59 62 61 62 63 62 60 59 60 60 59 58 43 43 43 50 46 43 40 38 36 35 36 35 32 30 29 29
54 54 54 53 53 52 52 48 46 45 44 43 45 45 47 49 52 59 60 62 62 61 59 58 57 57 60 42 41 44 43 40 38 38 37 36 33 34 35 31 28 27 27
52 53 53 53 50 50 51 44 42 42 41 41 41 44 43 44 46 47 58 59 63 62 57 55 52 47 51 39 40 45 41 37 35 34 34 34 33 32 33 31 27 23 23
49 52 51 49 48 48 49 45 41 38 40 42 41 42 42 41 43 43 48 54 50 45 41 36 36 37 38 38 38 40 42 37 34 32 31 32 32 31 31 29 26 23 23
48 49 49 46 46 46 44 43 41 39 39 39 39 40 39 39 39 40 40 41 40 36 34 33 33 33 34 35 35 35 35 35 32 30 30 30 31 29 28 27 26 25 23
45 46 47 45 44 43 41 39 38 40 38 38 37 37 38 38 37 36 36 35 35 34 32 32 31 31 32 32 33 33 32 31 29 30 30 30 29 28 26 26 25 23 23
42 43 43 41 40 41 39 38 39 40 38 36 35 35 34 34 34 34 35 34 33 32 31 30 29 28 28 29 29 29 29 30 27 25 23 23 23 23 22 22 23 24 26
41 40 38 38 38 39 37 37 39 39 36 34 34 33 33 33 32 31 32 32 32 33 31 29 29 27 23 24 25 24 22 22 22 22 21 20 20 19 19 20 21 22 23
38 37 36 35 35 36 35 35 36 37 35 32 32 32 32 32 32 31 29 31 31 31 31 30 28 27 28 28 27 27 26 26 25 22 20 19 20 19 20 20 19 21 20

GFSMW_sfc_temp_117.txt.gz
Temp
89 91 92 93 93 92 89 87 86 83 82 79 75 71 71 70 71 73 73 74 72 72 73 71 71 67 65 65 66 65 64 64 75 68 66 66 71 73 77 77 78 78 79
86 87 90 90 89 88 85 86 86 84 82 74 71 75 77 74 76 75 73 72 71 71 70 69 67 64 64 64 63 64 63 63 72 69 66 59 62 69 76 77 77 76 78
84 86 87 88 88 85 84 84 85 84 80 71 74 78 77 71 70 68 71 71 70 67 66 66 66 64 63 62 63 64 64 61 67 71 68 62 62 65 73 73 76 75 75
85 86 86 86 86 86 85 84 85 84 77 71 75 77 74 69 72 73 72 71 72 69 65 64 64 63 63 63 62 65 66 65 66 68 72 74 74 65 62 72 73 75 74
82 83 85 87 89 88 83 82 84 83 76 75 78 77 78 76 77 77 74 71 70 70 66 64 62 61 62 62 62 62 64 66 69 69 69 71 74 71 68 64 68 72 74
80 82 84 84 86 82 80 77 79 81 77 75 78 76 77 77 77 75 73 69 70 71 67 66 63 62 62 61 61 62 63 65 68 72 72 72 70 70 71 68 68 68 72
78 79 80 82 83 80 75 69 71 75 73 72 75 77 77 77 75 75 73 70 69 66 66 64 62 61 61 61 61 61 62 63 65 67 69 75 73 75 75 74 70 68 72
77 77 77 78 77 76 74 66 68 68 66 71 73 76 76 76 75 74 75 73 69 68 66 63 61 61 61 60 60 60 61 61 62 64 66 71 73 73 76 74 70 65 67
75 75 75 74 73 71 68 65 66 65 64 67 70 73 74 74 73 73 73 73 71 66 66 60 59 60 60 59 59 59 60 60 61 61 62 67 71 73 74 74 72 67 61
70 70 70 69 68 67 65 64 65 64 65 68 70 72 73 74 73 70 69 69 66 64 59 57 57 57 58 58 58 59 60 60 61 63 63 66 68 68 70 71 70 69 64
70 68 64 63 61 63 64 62 62 62 63 66 69 72 73 73 71 69 69 68 64 62 59 57 57 57 56 57 57 57 59 59 60 61 65 66 67 65 67 70 69 65 65
69 68 65 62 58 56 60 61 60 60 62 65 66 69 70 70 69 68 68 66 61 60 57 58 58 57 56 57 57 57 58 59 59 60 62 65 67 66 65 64 64 64 63
69 69 67 62 57 53 52 52 58 60 61 64 65 65 66 68 68 67 66 62 59 58 58 58 57 57 57 57 57 57 58 59 60 62 64 66 67 66 64 63 62 63 61
68 66 63 60 58 52 51 51 51 53 59 62 64 65 64 65 67 68 67 63 60 58 57 57 58 58 58 58 57 58 58 62 65 65 64 65 64 61 61 61 63 62 60
63 63 61 59 58 53 50 50 50 51 53 56 62 62 66 66 67 66 68 66 62 59 59 58 57 57 57 57 58 59 60 61 57 55 56 57 55 53 55 57 58 57 53
62 61 61 60 58 54 48 49 48 49 50 51 53 66 66 66 67 67 66 64 64 62 59 57 57 55 55 47 45 52 56 56 55 53 46 44 42 39 38 37 37 41 53
61 60 60 59 59 57 51 46 47 48 47 48 48 50 62 62 63 67 66 65 63 65 62 60 58 56 56 45 45 44 55 54 55 50 44 40 39 38 37 34 34 33 34
59 59 59 59 59 59 58 53 46 45 44 44 45 46 47 50 58 62 65 65 64 63 61 62 62 58 57 43 44 43 56 54 49 46 45 42 36 36 35 33 30 29 30
59 59 59 58 58 57 57 56 51 44 42 41 41 42 44 44 47 52 61 64 64 62 61 61 59 59 58 42 41 44 45 41 38 38 38 38 35 35 36 31 28 28 28
58 58 58 57 55 55 57 53 49 45 39 39 39 40 42 42 43 45 47 54 62 63 62 57 50 44 47 39 40 44 41 36 35 34 33 34 34 34 34 31 28 25 24
54 57 56 53 52 52 54 51 48 43 41 39 40 40 39 40 41 41 44 47 50 45 40 37 37 38 39 38 39 40 39 35 33 32 31 32 32 33 32 30 26 23 24
53 55 53 51 50 50 50 48 44 44 42 39 38 39 38 38 39 39 39 41 41 37 34 33 33 33 35 36 36 37 36 35 32 30 30 30 31 30 28 27 27 26 24
51 52 51 49 48 48 46 44 43 44 41 39 37 35 37 36 36 35 35 35 35 35 33 32 30 30 31 32 34 33 33 32 29 29 30 30 29 28 27 27 26 24 23
47 48 47 46 44 45 44 44 43 42 39 36 35 35 33 33 33 34 33 34 33 33 32 30 28 28 28 29 30 30 30 30 28 26 24 24 24 24 24 24 25 24 24
45 44 43 41 41 42 41 41 40 41 37 35 34 33 33 32 30 30 31 30 31 32 30 29 28 24 23 23 25 24 23 23 23 23 22 21 21 20 20 21 22 23 23
39 38 37 37 37 38 36 36 37 38 36 33 33 32 32 32 31 30 28 31 31 31 30 30 28 27 28 28 28 28 27 26 26 22 21 20 21 20 22 21 21 22 23

GFSMW_sfc_temp_120.txt.gz
Temp
86 88 87 86 85 83 82 80 79 78 77 77 74 73 73 71 70 70 70 70 70 70 69 67 67 67 65 65 64 63 62 61 64 61 61 62 66 67 65 70 68 68 68
82 84 84 83 81 81 80 79 80 79 79 78 76 75 74 69 69 69 70 69 70 70 69 67 66 66 65 64 64 63 61 61 64 60 61 55 59 64 67 65 67 67 70
80 81 82 80 79 79 77 78 79 79 79 77 73 71 70 70 68 68 68 68 70 69 69 67 67 65 64 63 63 62 62 60 62 63 62 54 53 59 64 62 63 64 63
82 82 82 81 78 76 76 77 78 78 78 73 70 70 68 68 69 68 68 67 68 67 67 66 66 64 64 63 63 63 61 61 60 61 64 65 63 58 53 60 62 63 65
79 80 83 83 82 78 75 75 77 77 74 71 70 70 70 70 69 69 66 67 67 67 66 65 65 64 64 63 62 62 62 62 62 62 63 64 62 65 60 56 59 62 64
78 79 80 81 82 76 74 74 76 77 71 70 71 70 71 69 70 69 67 66 66 66 65 64 64 64 63 63 62 62 62 61 62 64 65 64 62 62 62 59 60 60 62
75 77 79 79 78 75 73 72 73 74 71 71 70 71 72 72 71 70 69 66 65 65 65 64 62 62 62 62 63 62 62 62 61 63 64 67 65 67 65 64 61 59 60
74 74 75 75 75 73 71 67 67 68 71 71 70 70 71 71 71 70 70 67 66 64 65 63 63 62 62 62 61 61 62 62 61 61 62 65 67 66 67 64 63 58 57
71 71 71 70 68 68 68 66 65 66 66 66 67 68 68 69 69 70 68 67 67 65 63 63 62 61 61 61 61 60 60 61 61 61 60 62 63 65 65 65 64 62 54
68 67 66 64 65 66 65 64 64 63 64 65 65 67 67 68 69 68 67 67 66 64 62 60 60 60 60 60 60 60 60 60 60 61 60 61 60 62 63 62 63 63 60
65 64 63 61 59 60 61 63 61 61 62 62 64 65 66 67 68 67 67 65 63 63 60 59 57 57 57 58 59 59 59 59 60 61 60 59 60 59 59 60 61 59 60
65 63 61 58 55 54 54 53 58 60 61 62 62 64 64 66 65 65 65 65 63 62 59 58 57 56 57 57 57 57 58 59 59 59 59 59 60 59 61 59 59 58 57
65 62 59 57 54 52 51 52 52 53 57 60 61 61 62 64 64 64 64 63 61 60 58 57 57 56 56 56 57 57 57 58 59 59 59 59 59 59 60 60 61 58 57
63 61 59 57 54 53 51 50 50 52 53 55 59 59 60 62 63 64 64 61 60 58 57 57 57 56 56 56 57 57 57 58 58 59 60 59 60 59 58 58 57 57 56
61 60 57 56 55 52 51 50 49 49 51 52 53 57 60 62 64 64 63 62 59 58 58 57 57 57 56 56 56 56 56 56 56 55 57 57 55 52 54 56 55 55 54
59 59 59 58 55 53 51 49 47 47 48 48 48 50 52 63 64 62 62 61 60 58 57 56 56 55 55 45 46 52 55 55 54 51 48 46 45 42 41 39 37 41 51
58 58 57 56 57 55 52 48 47 47 46 46 46 47 47 50 54 62 61 60 60 59 57 56 56 55 54 44 44 45 53 53 53 49 45 43 40 39 37 35 34 34 34
56 57 56 56 56 56 55 52 49 45 43 43 43 44 45 45 48 51 59 60 59 59 57 56 56 55 55 43 44 42 52 51 50 48 47 44 38 37 36 33 31 30 30
56 56 56 55 54 54 55 53 50 45 42 40 40 41 42 42 43 45 47 51 59 58 57 57 56 55 54 42 42 44 50 44 38 38 39 39 36 36 37 33 29 29 29
55 55 54 53 51 51 54 50 47 44 40 39 39 40 39 40 40 41 42 46 50 57 56 46 43 42 46 39 40 45 41 35 34 33 33 34 34 33 33 31 29 26 25
53 55 52 49 48 49 51 47 44 41 42 41 39 38 38 38 38 38 41 42 45 43 39 36 35 36 37 39 39 40 39 35 32 32 31 32 33 33 32 30 26 24 24
51 52 49 47 47 47 47 44 41 43 42 41 38 37 35 35 37 37 37 38 38 36 34 33 32 33 34 35 37 37 36 35 32 29 30 30 31 30 29 27 28 27 25
47 48 47 45 45 44 43 40 40 41 39 37 36 35 35 33 33 33 33 34 35 34 32 31 29 29 31 32 33 33 32 31 29 29 30 30 30 29 27 28 27 25 25
43 44 43 41 40 41 40 39 39 40 37 35 34 34 32 31 31 32 32 32 32 33 32 30 28 28 28 29 30 30 30 30 28 27 25 25 25 26 25 25 25 25 24
39 39 37 37 36 37 35 36 37 38 35 33 32 32 31 30 29 29 29 29 29 31 29 28 28 25 23 24 27 26 25 25 24 24 23 22 21 21 21 22 22 22 23
33 32 32 33 33 33 32 33 35 36 34 31 31 30 30 30 29 28 27 31 30 31 30 29 27 27 29 29 29 28 28 27 26 23 21 20 21 20 20 20 21 22 22

GFSMW_sfc_temp_123.txt.gz
Temp
75 82 82 82 75 73 72 75 74 74 71 68 67 67 67 68 65 68 69 66 67 67 66 65 64 65 64 63 62 61 61 60 62 60 59 60 64 65 65 64 63 63 63
73 77 73 73 73 75 71 72 74 73 73 72 71 69 69 68 66 69 69 70 68 67 65 65 64 64 64 62 61 61 60 58 62 59 58 55 59 62 64 66 66 62 64
69 72 74 72 70 71 68 72 74 73 74 73 70 65 64 63 63 66 66 67 67 66 65 64 64 64 64 63 62 61 61 59 60 62 59 54 53 59 62 61 65 61 60
74 73 75 71 70 70 69 73 73 73 73 72 71 68 67 63 64 66 67 67 67 66 66 64 64 63 64 64 63 63 62 62 59 60 62 61 61 59 55 60 59 65 64
75 72 72 73 73 69 69 72 72 71 72 71 70 67 66 67 66 67 66 66 66 66 65 64 64 64 64 64 63 62 62 62 61 61 60 59 59 64 61 57 56 58 64
76 73 71 70 65 64 64 65 68 66 69 68 68 68 67 64 66 64 64 63 64 64 64 63 63 64 63 63 63 63 62 61 61 62 61 60 59 61 60 58 60 59 57
66 65 66 65 64 62 61 62 63 63 63 64 65 66 65 64 65 64 63 61 61 63 62 63 63 62 63 63 63 63 62 61 60 60 60 61 62 65 63 61 59 57 56
65 63 62 62 62 61 60 60 61 60 63 63 65 65 65 65 67 68 65 64 63 64 64 63 62 62 62 62 63 62 62 62 61 60 61 62 63 63 65 63 60 54 53
61 59 60 60 60 58 57 58 59 59 62 65 64 66 65 66 66 68 67 65 64 63 64 63 62 62 62 62 62 61 61 61 61 60 61 61 62 63 64 65 63 61 54
56 56 56 57 57 56 57 58 58 58 60 63 64 65 66 67 66 65 64 64 63 62 60 61 61 61 61 61 61 61 61 61 61 61 61 61 61 60 60 63 64 64 60
54 55 54 55 55 55 55 54 57 59 59 60 62 63 64 65 65 64 64 63 62 61 59 59 58 59 59 60 60 60 60 59 60 60 60 60 61 61 59 59 63 62 61
55 54 54 53 52 51 52 52 53 54 57 60 60 62 63 63 63 63 63 62 61 60 59 58 57 57 57 58 58 59 59 59 59 60 60 60 60 58 58 57 60 62 59
53 53 52 51 50 50 50 50 51 52 54 57 59 59 60 61 61 62 62 61 60 58 57 57 56 56 56 56 57 57 58 58 59 59 59 59 59 57 57 57 57 58 58
53 53 51 49 48 48 47 48 48 50 52 53 56 56 58 60 61 61 61 60 59 57 56 56 56 56 56 56 56 57 57 58 58 59 60 60 59 57 58 57 56 54 55
52 52 51 49 48 46 45 46 46 47 50 50 50 50 53 55 60 61 60 59 58 56 57 56 56 56 55 55 55 56 56 56 56 56 58 57 56 52 55 57 54 54 53
54 54 54 52 49 47 45 46 44 44 46 46 47 49 50 52 53 59 59 59 58 55 55 55 55 55 54 48 46 51 54 55 54 52 50 54 50 47 45 45 44 46 52
52 52 51 51 50 47 46 43 43 43 42 43 44 45 47 48 49 52 58 59 57 57 55 55 55 54 54 44 45 45 53 52 51 49 47 43 43 42 39 36 35 34 35
49 50 49 48 49 49 46 44 43 43 41 41 41 42 43 45 46 47 48 51 57 57 55 55 55 54 53 42 43 42 52 50 48 47 46 43 39 38 37 35 32 32 32
50 48 48 47 46 46 46 44 41 41 40 39 39 40 40 41 42 43 43 45 48 55 56 55 54 54 53 42 41 45 48 41 37 38 41 40 37 37 39 34 31 30 31
49 47 46 45 43 44 44 42 39 39 38 38 38 38 38 39 39 39 41 43 45 48 50 44 42 40 46 39 41 45 41 36 34 34 34 35 35 35 35 35 32 27 26
48 46 44 41 41 42 41 38 38 37 39 39 38 36 36 36 37 38 39 39 41 41 37 36 35 35 36 38 39 40 40 36 33 32 32 32 33 34 33 32 30 27 26
44 45 41 39 39 38 38 37 37 38 38 37 36 34 33 34 35 36 36 36 37 35 33 33 32 32 33 35 37 37 36 36 32 29 30 31 32 31 30 29 29 27 26
39 40 38 36 36 36 36 34 36 37 36 35 33 33 33 32 32 31 33 34 34 33 32 31 30 29 30 31 33 33 32 31 29 30 31 31 31 30 28 28 28 26 25
34 35 34 32 32 34 35 35 36 37 34 32 32 32 30 29 30 30 30 29 30 32 32 30 28 27 28 28 30 30 30 31 29 28 26 26 26 27 26 25 25 24 24
32 32 31 30 30 32 32 33 35 36 33 31 31 30 30 29 28 29 28 28 28 30 29 28 27 26 25 26 28 27 25 25 25 25 24 23 23 22 22 22 22 23 23
30 29 29 29 29 30 31 32 34 34 32 30 29 29 29 28 28 27 27 31 30 30 30 30 28 28 29 30 29 29 28 27 26 23 21 21 21 21 21 21 20 22 22

GFSMW_sfc_temp_126.txt.gz
Temp
76 78 81 82 76 75 70 73 73 73 71 68 66 66 66 66 66 67 67 67 67 66 65 64 63 64 63 62 62 60 60 58 60 60 59 59 60 61 63 63 62 61 61
72 72 72 76 76 76 67 72 73 72 72 70 70 70 69 66 67 67 66 67 67 67 67 66 64 63 63 61 61 61 58 58 62 58 59 55 56 58 62 62 62 61 62
66 72 73 70 69 76 68 71 73 72 73 72 69 64 64 62 64 65 66 67 67 67 67 66 64 64 64 63 62 61 61 58 60 61 60 54 53 57 60 60 61 60 60
71 72 74 70 68 68 67 74 74 72 72 71 68 66 66 64 67 67 67 66 67 66 66 65 65 64 65 63 62 61 62 61 59 58 61 61 60 57 52 58 59 61 60
67 71 72 71 74 70 67 71 72 72 71 70 70 67 66 67 64 65 64 66 66 66 65 65 64 63 64 64 63 62 62 62 60 61 60 58 58 65 59 54 55 59 62
69 73 73 74 66 62 61 65 69 71 70 70 70 69 66 64 63 64 63 64 65 64 64 64 64 64 64 64 63 62 62 62 62 62 62 61 59 59 60 57 58 57 60
64 67 60 57 57 57 59 61 63 61 66 68 68 68 66 65 64 64 63 63 62 63 63 64 63 63 64 64 63 62 62 62 61 61 61 62 62 60 60 58 58 57 55
55 55 56 56 57 58 58 59 60 61 62 62 64 65 65 66 65 65 64 63 63 63 64 63 63 63 63 62 63 62 62 62 61 60 60 61 61 60 61 60 57 53 53
53 53 54 53 54 55 55 57 58 59 60 61 62 61 62 63 63 63 63 63 64 63 63 63 62 61 62 62 62 62 61 61 61 61 60 61 61 61 62 62 61 59 53
52 52 52 52 53 53 54 55 56 57 58 62 63 64 62 62 64 63 63 64 64 64 62 62 62 60 61 61 61 61 61 61 61 61 60 60 61 61 59 59 61 63 60
51 51 51 52 52 53 52 52 53 54 56 60 61 62 63 62 64 63 64 64 63 62 62 62 61 61 60 60 60 61 61 60 60 61 60 60 60 60 60 59 60 61 61
50 51 51 51 50 50 50 50 51 52 55 58 60 60 62 63 62 62 62 62 61 61 60 59 59 58 58 59 59 59 59 59 59 60 60 60 61 59 60 59 58 59 61
49 49 49 48 47 47 48 48 48 49 52 55 58 58 59 60 60 60 61 61 60 59 58 58 57 57 56 56 57 57 58 58 59 59 59 60 60 59 59 59 57 58 59
49 48 47 46 46 46 46 46 46 48 50 51 52 52 53 57 59 60 60 59 59 58 57 57 55 56 56 56 56 57 56 57 58 58 59 60 59 59 59 59 58 56 56
48 48 47 47 46 44 45 43 43 45 47 47 48 48 50 54 57 59 59 59 58 58 57 56 55 55 55 55 55 55 55 56 56 57 58 58 57 54 56 58 55 56 54
44 48 49 48 46 44 42 42 41 41 43 44 44 45 47 50 51 52 57 58 57 56 55 54 55 54 54 47 45 50 55 55 54 53 53 54 50 50 45 45 45 53 54
43 45 46 45 45 43 42 40 40 43 42 41 42 42 43 45 47 49 51 57 56 56 55 55 55 54 54 44 44 43 53 53 52 49 46 46 46 43 40 37 37 36 37
41 42 44 44 45 44 42 41 40 41 40 40 40 40 40 41 43 45 46 48 51 55 55 54 54 54 52 43 43 42 52 50 48 47 46 41 39 41 39 37 34 33 33
43 43 43 42 43 42 42 40 38 39 39 37 37 38 38 39 39 39 41 44 45 49 54 55 54 53 52 42 41 43 47 42 38 39 41 40 37 37 40 36 33 32 32
43 41 40 39 39 39 40 38 36 36 36 36 36 36 36 37 36 37 38 40 43 46 49 43 42 39 46 38 40 44 41 37 34 34 34 35 35 35 37 36 34 30 28
41 40 38 35 35 37 39 37 36 35 36 37 36 35 34 35 34 36 37 38 39 38 35 34 34 35 35 38 39 41 40 37 33 33 32 33 34 34 34 35 34 30 28
36 37 34 33 34 35 37 35 33 36 36 35 34 33 32 33 33 32 34 36 36 34 32 33 31 31 32 35 36 37 37 36 33 30 31 32 33 33 32 30 30 29 28
32 34 32 32 34 35 34 33 34 35 35 33 32 31 31 31 31 29 29 31 33 33 32 30 29 29 30 31 33 33 32 32 30 31 32 32 31 31 29 30 29 27 26
30 31 31 31 31 33 33 33 35 35 33 31 31 30 30 29 30 30 29 28 29 32 32 31 29 28 28 28 29 30 30 31 29 27 26 26 26 26 25 25 25 24 25
30 30 29 29 29 31 32 33 34 34 32 30 30 30 29 29 28 29 28 28 29 30 28 27 27 28 26 26 28 27 26 26 25 25 25 24 23 22 22 22 23 23 23
28 27 27 27 27 29 30 31 33 33 31 30 29 28 28 28 28 27 27 31 31 31 31 30 29 29 30 30 30 29 29 28 27 24 22 21 21 21 21 21 21 22 22

GFSMW_sfc_temp_129.txt.gz
Temp
68 72 74 74 70 66 71 72 70 70 69 69 67 66 66 66 66 68 68 67 67 66 65 64 63 63 63 63 61 58 59 57 59 60 58 58 59 60 61 61 60 60 60
65 68 71 68 69 68 66 72 72 71 70 70 70 69 68 67 67 68 68 67 66 66 65 63 63 64 63 61 60 59 56 58 61 58 59 55 56 58 59 60 60 59 61
62 66 70 71 66 66 64 70 73 73 71 71 70 65 64 64 65 65 66 67 66 66 67 65 64 64 63 62 61 61 61 59 61 62 59 54 53 55 57 57 58 59 58
63 66 69 70 70 68 68 68 72 73 72 71 69 66 67 65 67 68 68 67 67 66 68 66 65 65 65 63 62 62 62 62 59 59 61 60 57 53 51 56 57 58 59
62 65 68 73 74 72 66 66 71 73 72 70 70 68 68 68 66 68 67 66 66 67 67 66 65 64 65 64 63 61 62 62 62 62 60 57 58 60 56 53 54 56 59
62 65 70 73 64 58 59 63 69 71 72 70 69 68 68 65 64 66 66 65 65 65 65 65 65 65 64 63 63 63 62 61 62 62 62 62 59 56 55 54 56 56 56
56 56 62 65 59 59 56 59 65 66 68 68 68 68 68 65 64 65 65 64 63 64 64 64 63 63 64 64 64 63 62 61 61 61 61 62 62 60 62 57 56 54 54
51 54 54 54 56 56 57 58 61 61 66 68 67 67 65 65 64 64 65 64 64 64 64 64 64 64 63 63 63 63 62 62 61 61 61 61 62 62 61 58 56 52 51
52 53 54 55 56 56 56 57 59 60 61 61 61 62 64 64 64 64 64 64 65 64 63 64 63 63 63 63 62 62 62 61 61 61 60 61 62 61 60 60 58 56 51
52 51 51 52 52 53 54 54 56 58 60 61 62 62 61 62 63 63 62 62 62 62 63 62 62 62 62 62 62 61 61 61 61 61 60 60 61 61 60 59 58 58 57
50 51 50 50 50 52 52 52 53 54 56 59 61 61 61 62 61 63 62 62 62 63 62 62 61 61 60 60 61 61 61 60 61 61 60 60 61 60 60 59 59 57 57
48 48 48 48 47 48 48 49 50 51 53 57 57 59 61 60 59 60 61 62 61 62 62 61 60 60 59 59 59 59 60 60 60 60 59 59 60 59 59 58 57 57 57
47 46 46 45 45 45 45 46 47 48 50 53 54 54 55 59 60 59 59 60 60 60 60 60 59 59 58 58 58 59 59 59 59 60 59 60 60 59 59 59 58 58 57
45 46 45 44 44 44 43 43 44 46 47 48 49 48 50 53 58 59 59 59 59 59 58 58 58 57 57 57 57 56 56 56 57 57 58 59 59 59 59 59 59 58 56
40 42 44 43 43 42 42 42 42 43 45 45 45 45 48 50 52 54 58 59 58 58 58 57 56 56 56 54 55 55 55 55 55 55 56 57 56 52 54 59 59 58 56
38 39 42 42 41 40 39 40 41 41 43 42 42 43 45 47 47 49 51 57 57 57 55 55 55 53 53 46 45 51 54 54 54 54 54 55 50 49 45 45 48 54 56
36 36 38 40 41 39 39 38 39 41 41 40 40 41 42 43 44 46 48 48 51 56 55 55 54 54 52 44 44 43 53 53 53 52 50 47 45 45 42 39 41 42 44
38 36 37 38 39 40 39 38 38 39 39 38 38 38 39 40 41 42 43 44 46 49 54 54 54 53 51 42 43 41 51 51 48 48 47 43 40 39 38 36 35 35 35
38 37 37 36 37 38 38 37 36 36 37 36 36 36 36 37 38 38 39 41 42 45 48 53 53 53 52 41 41 42 49 44 40 39 40 40 37 38 40 37 33 33 32
38 35 35 35 34 36 39 36 35 34 34 34 34 35 35 35 34 34 36 39 40 42 41 39 38 37 43 38 39 44 44 38 34 34 34 35 35 36 37 36 36 33 32
35 35 34 32 34 36 37 35 34 33 35 35 34 34 33 34 34 31 34 36 37 36 35 34 33 33 33 36 38 40 42 38 34 33 32 33 34 34 35 35 34 32 31
32 33 32 33 34 35 34 33 32 34 35 34 33 32 32 32 32 30 30 34 35 34 33 33 33 32 32 34 35 36 36 36 33 31 32 32 34 33 33 32 32 31 30
31 32 31 32 32 33 33 32 32 34 33 32 31 31 31 31 30 29 29 30 32 33 32 31 30 30 30 31 33 33 33 32 31 32 32 32 32 31 30 30 30 29 28
29 30 30 29 29 32 32 32 33 34 32 31 30 30 29 29 30 30 29 28 28 29 29 29 29 28 27 28 28 28 28 29 27 25 25 25 25 25 25 25 25 25 26
28 27 26 26 27 30 31 32 32 33 31 30 30 29 29 29 28 29 28 28 29 29 27 27 27 27 26 28 29 28 26 26 26 26 25 24 24 23 23 23 23 24 24
26 26 25 26 25 27 29 30 31 31 30 29 28 27 27 27 27 27 28 32 31 31 31 31 29 29 30 30 30 30 30 29 28 25 23 22 22 22 22 21 21 22 23

GFSMW_sfc_temp_132.txt.gz
Temp
60 63 65 67 67 72 68 68 67 68 68 68 66 66 66 66 67 68 69 68 67 66 64 63 62 63 63 63 60 58 57 57 60 59 58 57 59 61 61 62 62 61 62
58 61 62 60 60 66 66 66 68 68 68 70 69 69 69 68 68 68 68 69 67 67 65 63 63 63 63 63 60 59 57 57 60 57 57 55 56 58 60 61 60 60 61
56 59 61 62 61 62 65 66 69 70 68 71 70 66 68 66 65 66 67 67 67 66 66 64 63 64 64 62 61 60 60 58 60 60 59 54 54 55 58 59 59 59 59
58 59 60 61 62 62 65 66 69 72 69 70 69 68 66 66 67 68 68 67 68 66 66 65 64 64 64 63 62 61 61 61 58 59 60 61 57 53 52 57 58 59 59
57 57 59 62 66 67 61 64 65 69 71 70 70 68 68 68 68 68 67 67 67 66 66 65 65 65 64 63 62 61 61 61 61 61 60 58 58 59 55 52 55 57 59
56 57 61 63 64 59 59 59 60 65 68 69 70 69 68 67 65 66 66 66 66 66 66 66 65 65 64 64 62 62 61 61 61 61 62 61 59 57 56 55 56 56 57
49 49 49 51 57 55 55 57 60 61 66 68 69 68 69 68 66 67 66 65 65 65 65 65 64 64 65 64 63 62 62 61 61 59 60 61 62 61 60 57 55 55 55
52 52 55 54 52 53 54 57 60 62 65 67 68 68 68 66 67 67 68 67 66 66 66 65 65 65 65 64 63 63 62 62 61 61 60 61 61 62 61 60 56 52 53
50 50 50 51 52 54 56 59 61 61 65 66 66 66 65 65 65 66 66 68 68 66 65 65 64 64 64 63 63 62 62 61 61 61 61 61 61 61 61 60 60 57 51
48 48 49 48 49 50 52 54 56 57 59 61 64 64 65 64 64 64 64 65 65 64 63 64 64 63 63 63 62 62 62 61 61 61 60 60 61 61 61 59 59 59 58
45 45 46 48 47 47 48 48 51 52 55 59 61 61 61 62 61 61 61 62 62 62 62 63 62 62 61 62 61 61 61 61 61 61 60 60 61 60 60 59 59 58 58
41 42 42 45 45 44 45 45 46 48 50 53 55 56 60 61 61 60 60 60 60 61 61 61 61 61 61 61 61 60 60 60 60 60 60 60 60 59 60 59 59 58 58
40 39 38 39 42 42 42 43 43 44 47 49 50 51 52 54 58 59 60 60 60 60 60 61 60 60 59 59 59 60 59 60 60 60 60 60 60 59 60 60 58 58 58
34 35 35 38 39 39 41 41 42 43 44 45 46 46 48 50 52 57 58 59 60 60 60 60 60 59 59 59 59 58 58 58 58 58 58 58 59 59 59 58 58 58 57
34 34 34 35 38 38 38 40 41 41 43 43 42 42 45 47 48 50 53 58 58 58 59 58 57 57 57 57 56 56 56 56 55 55 56 56 55 51 52 57 57 58 57
33 32 34 35 37 37 37 37 39 39 41 40 40 41 43 44 44 46 48 50 55 56 57 56 56 55 54 47 44 51 55 54 53 53 53 53 49 48 44 43 44 51 57
34 32 32 32 34 37 37 35 36 39 38 38 38 39 40 41 41 43 45 45 47 51 55 55 55 53 53 43 43 43 53 53 53 52 51 49 48 44 46 43 39 40 41
34 33 32 33 33 36 38 37 36 36 36 36 36 37 37 38 39 40 40 42 44 46 48 54 54 53 52 42 42 41 52 51 51 49 48 47 43 39 39 37 35 34 35
34 34 34 34 35 35 38 36 35 35 34 33 34 34 35 36 36 35 36 39 40 43 43 43 45 47 50 38 39 42 49 47 42 40 39 42 39 38 39 35 33 33 32
34 32 33 35 34 34 37 35 33 33 32 33 33 34 34 34 33 31 34 37 39 39 39 36 36 35 36 37 37 41 45 40 35 34 34 35 35 36 37 36 35 34 32
32 33 33 33 32 34 35 33 32 31 33 34 33 33 32 32 32 32 33 35 36 36 35 33 33 33 33 34 37 38 43 39 34 33 32 33 34 35 36 35 34 32 33
30 32 31 31 33 33 33 32 30 34 34 33 32 31 31 32 32 31 32 33 34 34 33 33 32 32 32 33 34 36 37 36 34 32 32 33 34 34 33 32 32 32 32
28 30 29 29 31 32 32 30 31 34 33 32 31 30 31 31 30 29 29 30 31 30 30 30 29 29 30 30 31 33 33 33 32 32 32 32 32 31 30 31 30 30 30
27 27 27 26 27 30 31 31 32 33 32 30 30 30 29 29 30 30 29 28 28 28 27 27 27 27 28 28 28 28 28 29 27 26 26 26 26 26 26 26 26 27 27
26 27 25 26 25 27 29 30 30 31 30 30 29 29 29 28 28 29 29 28 29 29 27 27 27 26 26 28 30 28 26 26 26 27 26 25 25 23 23 24 24 25 25
25 25 25 25 24 25 27 28 28 28 29 29 28 27 27 26 26 27 27 30 30 31 32 31 29 29 30 31 31 30 30 29 29 25 23 22 22 22 22 22 22 23 24

GFSMW_sfc_temp_135.txt.gz
Temp
66 68 68 69 68 69 69 71 71 74 73 72 68 67 67 70 71 70 71 70 69 68 70 70 68 67 65 65 67 69 68 65 68 63 61 62 65 65 67 66 67 63 64
62 62 65 67 67 67 68 70 73 75 74 74 73 73 72 70 72 72 70 70 69 68 68 70 68 67 67 66 66 68 65 66 67 65 64 57 58 61 65 66 65 63 63
59 62 62 65 67 66 66 70 72 74 75 74 73 73 72 70 68 68 68 69 69 68 68 69 68 67 67 65 65 69 68 66 64 70 69 59 61 62 63 62 64 63 63
59 60 60 62 66 66 67 68 70 73 76 75 73 70 69 68 70 70 71 70 69 68 68 68 69 67 67 65 64 68 70 70 64 66 71 71 70 65 57 60 61 64 64
57 55 59 62 68 67 66 67 69 72 76 73 74 72 72 74 74 71 69 69 68 68 68 67 68 67 66 66 65 64 67 70 70 67 67 68 67 64 62 58 57 60 62
52 53 56 60 63 65 65 66 67 71 73 74 74 73 72 73 72 70 68 67 67 67 67 67 67 68 67 67 65 65 67 68 70 70 71 69 66 66 63 61 63 60 60
48 49 49 50 54 60 65 65 67 70 71 73 73 73 73 73 71 69 70 67 65 65 65 66 66 68 68 67 65 64 65 68 68 68 68 70 70 72 68 67 63 61 62
45 46 46 47 48 52 60 64 68 69 71 73 72 73 74 72 73 72 73 70 68 69 68 66 67 68 67 67 65 64 64 67 66 66 65 66 69 71 70 68 65 57 54
41 41 42 43 46 46 50 57 66 68 70 72 72 72 73 71 71 72 73 70 70 68 68 66 66 67 67 68 66 64 63 63 63 63 63 63 66 68 69 69 69 65 55
39 38 40 40 43 45 46 48 54 56 59 67 71 72 72 69 69 70 70 71 71 68 67 66 66 66 66 67 64 64 64 63 63 63 62 62 64 65 66 66 66 66 61
35 37 37 40 40 43 44 45 48 51 52 54 61 67 67 67 68 68 69 69 68 66 66 65 65 64 64 64 63 63 63 62 62 63 62 62 63 63 64 62 63 62 61
35 35 36 37 37 38 41 42 44 46 49 51 52 55 58 61 63 63 63 64 63 63 63 63 64 64 64 64 63 62 62 61 61 61 61 61 63 62 62 62 61 60 60
35 34 33 33 34 37 38 40 42 43 45 48 47 49 50 52 54 61 64 63 63 61 61 61 61 62 63 63 62 62 61 61 62 62 61 63 62 61 61 61 61 60 59
33 32 32 32 33 35 36 38 39 41 42 42 42 44 45 46 49 52 56 61 61 61 61 61 61 61 62 62 62 61 61 62 63 64 63 63 62 63 63 62 61 61 59
34 32 31 32 32 33 34 36 38 38 39 39 40 41 43 45 47 48 50 54 59 60 60 60 60 61 61 61 61 62 62 62 60 59 60 60 57 52 54 57 58 57 58
33 32 31 31 32 34 35 36 36 37 38 38 38 40 41 43 44 45 47 48 51 56 58 58 58 58 57 47 47 54 60 60 58 58 57 58 50 50 43 42 42 49 56
33 32 31 31 32 34 36 36 38 39 39 38 37 37 38 39 40 42 44 44 46 51 52 56 56 57 58 46 46 46 58 61 61 57 55 53 51 49 52 45 40 40 39
33 33 33 34 34 34 36 38 38 38 38 37 37 37 36 37 37 39 39 41 43 45 47 45 48 55 47 42 41 41 59 58 55 54 53 52 49 47 44 44 41 40 38
34 34 35 36 36 35 36 37 37 37 36 34 34 35 35 36 37 35 36 38 40 41 41 40 40 41 41 36 37 42 51 51 48 45 43 44 44 39 40 41 38 36 35
35 34 35 36 35 36 37 35 35 35 33 34 34 35 35 35 34 35 36 38 40 39 38 36 35 35 36 36 37 39 48 45 38 36 35 35 38 36 36 41 39 36 34
33 34 34 34 34 36 36 34 34 32 34 35 34 34 34 34 34 35 36 36 38 38 36 35 34 33 33 34 36 37 43 40 36 35 34 34 35 36 37 36 37 34 34
31 32 32 32 34 34 34 32 31 34 35 34 33 33 33 34 34 33 34 34 35 34 34 33 32 32 32 32 33 35 35 36 35 32 33 33 34 34 34 33 33 33 34
31 32 31 32 33 33 33 31 31 34 34 33 32 32 34 33 33 32 31 32 32 31 31 31 30 31 31 31 31 32 31 32 30 31 31 31 31 31 30 31 31 32 32
29 31 30 30 30 32 32 32 32 33 34 32 32 33 32 32 32 32 32 30 29 29 28 28 28 29 29 30 31 31 29 30 28 28 28 28 28 27 27 27 27 28 28
27 28 29 29 29 31 31 33 32 32 32 32 31 31 31 32 31 30 29 29 29 30 29 28 29 27 27 29 31 30 29 28 28 28 27 26 25 25 25 25 25 26 27
27 25 27 28 28 29 30 31 32 32 30 30 30 29 30 29 31 31 30 30 29 29 29 31 30 30 31 31 31 31 30 30 29 27 25 23 23 23 23 23 23 24 24

GFSMW_sfc_temp_138.txt.gz
Temp
74 76 75 75 73 75 75 76 76 76 79 81 80 80 79 80 82 82 80 79 73 77 77 80 77 74 76 75 73 74 76 77 76 68 64 65 67 67 69 72 71 70 64
70 71 70 69 68 70 73 75 77 78 79 81 83 82 81 81 82 81 80 79 74 74 78 79 77 70 74 73 72 75 76 73 71 73 71 63 62 64 70 72 71 68 68
65 63 63 63 64 66 71 75 77 78 79 80 84 81 76 78 79 80 78 79 75 72 74 78 78 71 75 70 69 75 74 69 68 76 74 67 67 70 70 67 70 70 66
57 56 55 56 55 59 64 71 76 77 79 79 81 79 75 72 77 78 79 78 76 72 71 75 77 74 75 74 70 77 76 75 67 74 77 79 78 70 63 67 66 66 69
52 49 48 51 50 53 57 63 74 75 77 78 79 80 77 76 80 79 76 76 74 73 70 71 73 72 72 75 73 72 75 76 75 72 74 73 74 76 74 67 64 64 66
48 46 45 46 46 46 50 57 71 74 75 76 78 78 77 78 79 77 75 76 74 70 70 70 71 71 71 71 71 71 73 76 75 74 75 73 70 71 72 71 71 67 66
45 42 41 38 42 42 45 53 67 72 74 74 77 79 78 76 77 74 75 73 70 67 68 68 68 69 70 70 70 69 70 73 74 74 74 74 73 75 74 74 70 70 71
45 43 39 37 40 41 43 47 55 71 75 75 76 79 80 81 81 82 80 77 74 71 70 68 69 70 70 70 69 69 69 73 74 73 74 74 75 76 76 73 71 65 66
41 41 38 37 39 40 41 44 47 60 75 75 77 79 80 80 80 80 80 79 77 73 70 68 68 68 69 69 69 68 68 71 71 73 73 74 74 76 77 77 74 70 62
40 39 37 35 38 40 41 41 44 47 56 69 78 79 79 79 80 79 78 78 77 75 70 67 67 67 68 69 68 68 70 69 68 68 71 71 71 69 68 70 74 73 69
39 37 36 34 37 39 39 40 42 44 49 51 57 66 74 76 78 77 76 75 74 73 70 69 68 66 67 67 66 67 71 68 67 65 65 67 67 66 67 67 69 69 70
41 38 36 34 35 36 37 38 40 42 46 48 50 51 54 58 62 70 74 74 73 70 68 66 65 65 65 65 65 66 68 67 64 64 64 64 65 65 67 65 65 64 66
39 37 34 32 32 34 36 37 39 40 43 47 45 45 50 53 52 55 59 64 64 64 64 63 63 63 64 63 64 66 66 65 64 64 63 64 64 64 65 66 67 66 67
38 35 32 32 32 33 34 36 37 39 41 44 44 43 45 47 53 55 53 56 66 66 66 69 68 65 63 63 63 64 66 65 63 64 63 63 62 63 64 66 66 66 65
38 34 31 31 32 32 33 35 36 38 39 41 43 40 45 45 50 48 51 53 55 64 68 67 66 64 63 63 61 62 64 64 62 63 64 66 63 55 59 67 67 68 64
37 35 33 32 32 32 35 35 35 37 39 36 36 40 40 41 42 44 46 48 50 54 59 61 61 61 60 48 48 56 62 65 64 63 63 62 52 52 46 45 44 50 58
37 35 34 33 33 34 35 35 38 39 38 34 36 38 37 37 39 41 43 43 46 49 50 50 56 52 45 40 45 46 60 59 61 63 62 61 60 54 60 45 41 41 39
38 37 38 37 37 38 38 37 40 40 39 39 39 37 37 37 39 39 39 41 43 44 43 44 46 45 40 38 40 41 59 59 59 61 62 61 57 54 53 48 46 47 48
41 40 40 39 39 38 39 39 36 38 38 37 37 38 38 37 37 36 38 40 40 40 39 39 39 40 38 37 38 42 54 57 57 55 49 52 51 40 41 47 43 43 41
41 40 41 40 38 38 39 38 36 35 35 36 37 38 39 38 36 37 38 39 40 38 37 36 35 35 35 35 37 39 48 47 45 43 38 35 38 36 37 46 46 43 39
40 41 41 39 38 39 38 38 37 35 36 38 38 39 38 37 37 37 37 39 39 39 37 35 36 36 33 36 35 36 43 40 40 38 36 35 35 36 37 36 39 39 35
39 40 39 38 39 38 38 37 36 37 39 39 38 38 37 36 37 36 37 37 37 36 36 35 35 34 34 33 33 34 35 37 34 32 32 32 33 33 33 33 33 34 35
38 39 38 37 37 37 37 36 36 38 39 39 38 38 37 36 35 33 33 34 35 34 32 33 32 31 33 33 33 32 32 32 30 30 31 31 31 31 30 30 31 32 33
35 36 37 35 34 36 36 36 37 38 39 38 37 39 37 36 34 34 32 30 30 32 31 31 30 30 31 31 32 32 32 32 30 30 30 29 28 29 29 29 29 28 29
34 34 32 33 33 35 35 35 36 39 37 36 36 37 37 36 35 32 30 30 29 29 30 30 30 29 28 29 31 31 30 30 29 31 30 28 27 26 26 26 26 27 27
34 32 31 31 31 33 34 35 35 36 36 35 35 34 36 36 35 34 32 30 29 28 29 30 30 31 31 31 31 31 31 31 32 31 29 27 26 26 26 26 25 26 26

GFSMW_sfc_temp_141.txt.gz
Temp
74 74 71 71 70 70 69 71 70 73 79 80 78 79 81 78 84 87 86 82 77 80 80 83 82 80 80 80 77 74 75 76 76 71 66 66 71 70 72 74 74 73 73
68 68 67 65 62 61 59 64 66 68 72 82 80 81 82 82 79 85 85 84 79 78 81 80 81 79 80 79 77 75 74 77 73 70 69 62 62 65 70 73 71 72 73
62 61 60 58 57 56 57 59 59 62 68 71 82 82 82 81 75 76 80 83 80 77 80 80 82 78 79 78 76 75 75 74 73 74 73 67 65 71 71 70 68 70 70
60 58 58 53 53 52 54 52 53 57 64 70 77 77 80 80 79 74 76 83 81 77 79 80 81 75 77 77 75 77 77 76 70 73 79 79 79 68 65 71 70 69 68
56 55 53 52 52 49 50 48 49 52 59 66 71 77 76 82 80 76 72 77 79 79 77 79 79 76 76 77 75 74 75 77 73 72 75 76 76 77 75 66 66 69 70
53 53 52 52 50 47 47 46 47 49 55 62 72 76 74 78 80 77 71 71 76 77 73 75 79 79 76 76 75 74 75 76 76 75 76 75 73 71 73 72 71 67 69
51 51 49 46 46 42 43 43 44 45 53 62 73 75 75 73 79 75 75 68 72 74 70 70 75 78 76 76 77 74 74 75 75 75 75 78 76 75 74 75 73 70 74
50 50 48 45 42 40 40 40 41 43 50 60 74 75 76 77 80 75 73 66 65 70 72 70 72 76 76 75 75 74 75 75 75 74 75 77 77 75 75 74 74 67 68
48 48 46 44 40 39 39 38 40 42 46 54 66 74 76 76 79 77 77 70 70 69 71 70 69 70 73 73 73 72 71 73 73 74 74 75 77 77 77 76 76 68 65
46 47 45 42 40 40 39 40 40 41 43 48 54 70 77 79 79 76 69 70 73 73 71 69 68 68 69 71 70 69 70 70 73 73 72 73 73 74 74 73 71 73 71
46 46 44 41 40 41 38 39 39 40 42 45 47 52 59 61 75 74 74 67 72 74 72 71 68 66 67 68 68 67 68 68 71 73 72 72 74 72 71 72 72 69 69
47 45 43 38 38 39 37 37 38 39 41 45 44 47 50 54 56 58 67 74 74 74 72 72 69 66 66 66 66 66 67 68 68 68 69 71 72 70 71 70 67 67 70
47 43 37 33 34 35 35 36 37 38 41 44 42 44 46 47 51 53 55 60 71 75 74 73 69 66 66 66 66 66 67 69 68 68 66 68 69 65 65 66 65 66 67
45 41 35 33 33 33 34 35 35 38 40 42 41 40 44 45 48 50 52 53 57 63 64 65 65 64 64 64 64 65 65 67 68 67 66 65 64 65 64 64 65 65 64
44 40 35 33 33 33 33 35 35 37 39 40 40 39 42 46 46 47 49 52 53 56 61 66 62 62 63 64 63 64 64 64 65 63 64 64 61 54 59 62 63 64 64
43 41 39 36 34 34 34 35 35 36 39 38 38 39 40 41 43 44 45 47 49 52 52 53 65 65 51 41 47 58 63 63 63 60 61 62 53 53 47 48 45 52 65
43 42 41 39 38 38 39 37 36 38 39 37 37 37 39 39 40 43 42 43 43 46 45 46 47 42 41 38 40 42 65 64 63 62 59 57 57 54 57 44 42 42 41
44 44 44 43 42 41 41 41 40 38 40 39 38 36 34 38 39 38 38 41 42 41 41 40 43 42 39 37 37 39 54 60 58 58 58 57 55 55 55 53 48 48 47
46 46 47 46 44 42 42 42 41 40 37 38 38 39 38 37 35 35 36 39 38 38 37 37 36 37 38 35 36 41 53 55 52 45 43 53 52 40 45 50 45 40 38
47 46 47 47 44 42 43 43 41 39 38 37 39 40 39 39 37 37 36 37 38 37 37 35 34 34 34 34 35 37 46 45 40 38 36 35 38 37 38 45 45 43 38
46 46 47 45 44 43 42 41 40 37 40 41 41 41 39 38 37 37 37 37 37 35 35 34 34 34 34 34 34 35 40 39 38 35 34 34 34 35 36 36 37 35 35
44 45 44 43 43 43 41 39 37 40 41 42 41 41 40 38 38 35 36 36 37 35 35 34 33 33 34 34 34 33 33 35 34 32 32 32 34 34 34 33 34 34 35
43 44 43 42 42 41 40 37 37 39 41 41 40 41 40 39 36 34 32 32 34 34 32 32 32 31 32 33 33 33 32 32 31 31 32 32 32 32 31 31 31 32 33
41 41 40 39 38 39 39 38 39 40 41 39 38 40 38 37 36 34 32 29 28 30 30 31 30 31 30 31 32 32 32 32 30 30 30 29 29 29 28 29 30 29 29
39 39 37 35 35 37 37 37 37 38 37 38 37 36 37 36 36 32 31 30 28 28 28 28 30 28 28 29 32 31 30 31 31 31 30 29 29 28 27 27 27 27 28
35 35 33 33 33 33 33 35 35 35 34 34 34 34 35 35 35 34 31 30 30 30 30 30 30 31 31 32 33 34 34 33 33 31 29 28 27 26 26 26 26 27 27